<?xml version="1.0" encoding="UTF-8" standalone="no" ?>
<gpx xmlns="http://www.topografix.com/GPX/1/1" xmlns:xsi="http://www.w3.org/2001/XMLSchema-instance" xsi:schemaLocation="http://www.topografix.com/GPX/1/1 http://www.topografix.com/GPX/1/1/gpx.xsd" version="1.1" creator="VisuGPX - https://www.visugpx.com">
  <metadata>
    <name>132011</name>
    <desc><![CDATA[partie de montagne russe 23.00
]]></desc>
  </metadata>
  <trk>
    <name><![CDATA[ACTIVE LOG131919]]></name>
    <trkseg>
      <trkpt lat="48.38324" lon="-4.50926">
        <ele>72.265</ele>
        <time>2011-04-12T11:19:19Z</time>
      </trkpt>
      <trkpt lat="48.38324" lon="-4.50926">
        <ele>68.618</ele>
        <time>2011-04-12T11:21:43Z</time>
      </trkpt>
      <trkpt lat="48.38324" lon="-4.50926">
        <ele>65.559</ele>
        <time>2011-04-12T11:22:01Z</time>
      </trkpt>
      <trkpt lat="48.38324" lon="-4.50926">
        <ele>62.332</ele>
        <time>2011-04-12T11:22:10Z</time>
      </trkpt>
      <trkpt lat="48.38324" lon="-4.50926">
        <ele>59.243</ele>
        <time>2011-04-12T11:22:29Z</time>
      </trkpt>
      <trkpt lat="48.38324" lon="-4.50926">
        <ele>58.35</ele>
        <time>2011-04-12T11:22:31Z</time>
      </trkpt>
      <trkpt lat="48.38324" lon="-4.50926">
        <ele>58.884</ele>
        <time>2011-04-12T11:22:35Z</time>
      </trkpt>
      <trkpt lat="48.38324" lon="-4.50926">
        <ele>60.203</ele>
        <time>2011-04-12T11:22:36Z</time>
      </trkpt>
      <trkpt lat="48.38324" lon="-4.50926">
        <ele>57.064</ele>
        <time>2011-04-12T11:22:38Z</time>
      </trkpt>
      <trkpt lat="48.38324" lon="-4.50926">
        <ele>55.549</ele>
        <time>2011-04-12T11:22:40Z</time>
      </trkpt>
      <trkpt lat="48.38324" lon="-4.50926">
        <ele>52.535</ele>
        <time>2011-04-12T11:22:49Z</time>
      </trkpt>
      <trkpt lat="48.38324" lon="-4.50926">
        <ele>55.613</ele>
        <time>2011-04-12T11:23:14Z</time>
      </trkpt>
      <trkpt lat="48.38324" lon="-4.50926">
        <ele>58.617</ele>
        <time>2011-04-12T11:23:25Z</time>
      </trkpt>
      <trkpt lat="48.38324" lon="-4.50926">
        <ele>61.764</ele>
        <time>2011-04-12T11:23:39Z</time>
      </trkpt>
      <trkpt lat="48.38324" lon="-4.50926">
        <ele>63.844</ele>
        <time>2011-04-12T11:23:45Z</time>
      </trkpt>
    </trkseg>
  </trk>
  <trk>
    <name><![CDATA[ACTIVE LOG132354]]></name>
    <trkseg>
      <trkpt lat="48.38563" lon="-4.50292">
        <ele>65.009</ele>
        <time>2011-04-12T11:23:54Z</time>
      </trkpt>
      <trkpt lat="48.3857" lon="-4.50294">
        <ele>66.507</ele>
        <time>2011-04-12T11:23:56Z</time>
      </trkpt>
      <trkpt lat="48.38607" lon="-4.50303">
        <ele>69.089</ele>
        <time>2011-04-12T11:24:07Z</time>
      </trkpt>
      <trkpt lat="48.38608" lon="-4.50305">
        <ele>69.171</ele>
        <time>2011-04-12T11:24:09Z</time>
      </trkpt>
      <trkpt lat="48.38631" lon="-4.50307">
        <ele>68.529</ele>
        <time>2011-04-12T11:24:34Z</time>
      </trkpt>
      <trkpt lat="48.38684" lon="-4.50313">
        <ele>72.267</ele>
        <time>2011-04-12T11:24:48Z</time>
      </trkpt>
      <trkpt lat="48.387" lon="-4.50315">
        <ele>69.208</ele>
        <time>2011-04-12T11:24:52Z</time>
      </trkpt>
      <trkpt lat="48.3872" lon="-4.5032">
        <ele>65.49</ele>
        <time>2011-04-12T11:24:57Z</time>
      </trkpt>
      <trkpt lat="48.38744" lon="-4.50326">
        <ele>62.564</ele>
        <time>2011-04-12T11:25:02Z</time>
      </trkpt>
      <trkpt lat="48.3877" lon="-4.50332">
        <ele>59.238</ele>
        <time>2011-04-12T11:25:07Z</time>
      </trkpt>
      <trkpt lat="48.38787" lon="-4.50337">
        <ele>56.705</ele>
        <time>2011-04-12T11:25:13Z</time>
      </trkpt>
      <trkpt lat="48.38787" lon="-4.50337">
        <ele>55.242</ele>
        <time>2011-04-12T11:25:16Z</time>
      </trkpt>
      <trkpt lat="48.38787" lon="-4.50337">
        <ele>52.199</ele>
        <time>2011-04-12T11:25:26Z</time>
      </trkpt>
      <trkpt lat="48.38787" lon="-4.50337">
        <ele>49.033</ele>
        <time>2011-04-12T11:25:41Z</time>
      </trkpt>
      <trkpt lat="48.38787" lon="-4.50337">
        <ele>46.018</ele>
        <time>2011-04-12T11:26:03Z</time>
      </trkpt>
      <trkpt lat="48.3882" lon="-4.50343">
        <ele>43.945</ele>
        <time>2011-04-12T11:26:10Z</time>
      </trkpt>
      <trkpt lat="48.38845" lon="-4.50348">
        <ele>41.833</ele>
        <time>2011-04-12T11:26:15Z</time>
      </trkpt>
      <trkpt lat="48.38863" lon="-4.50351">
        <ele>40.381</ele>
        <time>2011-04-12T11:26:18Z</time>
      </trkpt>
      <trkpt lat="48.38877" lon="-4.50354">
        <ele>40.165</ele>
        <time>2011-04-12T11:26:21Z</time>
      </trkpt>
      <trkpt lat="48.3897" lon="-4.50363">
        <ele>40.206</ele>
        <time>2011-04-12T11:26:37Z</time>
      </trkpt>
      <trkpt lat="48.39006" lon="-4.50358">
        <ele>41.269</ele>
        <time>2011-04-12T11:26:47Z</time>
      </trkpt>
      <trkpt lat="48.39079" lon="-4.50361">
        <ele>43.258</ele>
        <time>2011-04-12T11:27:03Z</time>
      </trkpt>
      <trkpt lat="48.39153" lon="-4.50371">
        <ele>46.319</ele>
        <time>2011-04-12T11:27:19Z</time>
      </trkpt>
      <trkpt lat="48.39175" lon="-4.50378">
        <ele>47.721</ele>
        <time>2011-04-12T11:27:29Z</time>
      </trkpt>
      <trkpt lat="48.39186" lon="-4.50381">
        <ele>46.196</ele>
        <time>2011-04-12T11:27:49Z</time>
      </trkpt>
      <trkpt lat="48.39203" lon="-4.50362">
        <ele>45.519</ele>
        <time>2011-04-12T11:27:54Z</time>
      </trkpt>
      <trkpt lat="48.39231" lon="-4.50221">
        <ele>47.245</ele>
        <time>2011-04-12T11:28:11Z</time>
      </trkpt>
      <trkpt lat="48.39248" lon="-4.50133">
        <ele>49.571</ele>
        <time>2011-04-12T11:28:24Z</time>
      </trkpt>
      <trkpt lat="48.39251" lon="-4.5012">
        <ele>48.842</ele>
        <time>2011-04-12T11:28:26Z</time>
      </trkpt>
      <trkpt lat="48.39283" lon="-4.49963">
        <ele>45.63</ele>
        <time>2011-04-12T11:28:48Z</time>
      </trkpt>
      <trkpt lat="48.39287" lon="-4.49941">
        <ele>47.937</ele>
        <time>2011-04-12T11:28:51Z</time>
      </trkpt>
      <trkpt lat="48.39317" lon="-4.49804">
        <ele>44.582</ele>
        <time>2011-04-12T11:29:08Z</time>
      </trkpt>
      <trkpt lat="48.39319" lon="-4.49796">
        <ele>44.682</ele>
        <time>2011-04-12T11:29:09Z</time>
      </trkpt>
      <trkpt lat="48.39335" lon="-4.49719">
        <ele>44.351</ele>
        <time>2011-04-12T11:29:18Z</time>
      </trkpt>
      <trkpt lat="48.39354" lon="-4.49627">
        <ele>40.984</ele>
        <time>2011-04-12T11:29:29Z</time>
      </trkpt>
      <trkpt lat="48.39379" lon="-4.49508">
        <ele>38.723</ele>
        <time>2011-04-12T11:29:45Z</time>
      </trkpt>
      <trkpt lat="48.39394" lon="-4.4943">
        <ele>36.235</ele>
        <time>2011-04-12T11:29:53Z</time>
      </trkpt>
      <trkpt lat="48.39404" lon="-4.49373">
        <ele>34.743</ele>
        <time>2011-04-12T11:29:59Z</time>
      </trkpt>
      <trkpt lat="48.39413" lon="-4.49358">
        <ele>35.907</ele>
        <time>2011-04-12T11:30:03Z</time>
      </trkpt>
      <trkpt lat="48.39419" lon="-4.49369">
        <ele>35.818</ele>
        <time>2011-04-12T11:30:07Z</time>
      </trkpt>
      <trkpt lat="48.39422" lon="-4.49374">
        <ele>35.586</ele>
        <time>2011-04-12T11:30:20Z</time>
      </trkpt>
      <trkpt lat="48.39422" lon="-4.49374">
        <ele>35.943</ele>
        <time>2011-04-12T11:31:15Z</time>
      </trkpt>
      <trkpt lat="48.39403" lon="-4.4938">
        <ele>35.647</ele>
        <time>2011-04-12T11:31:25Z</time>
      </trkpt>
      <trkpt lat="48.39399" lon="-4.494">
        <ele>35.544</ele>
        <time>2011-04-12T11:31:28Z</time>
      </trkpt>
      <trkpt lat="48.39379" lon="-4.49508">
        <ele>38.919</ele>
        <time>2011-04-12T11:31:48Z</time>
      </trkpt>
      <trkpt lat="48.39349" lon="-4.49653">
        <ele>41.994</ele>
        <time>2011-04-12T11:32:11Z</time>
      </trkpt>
      <trkpt lat="48.39328" lon="-4.49754">
        <ele>45.231</ele>
        <time>2011-04-12T11:32:28Z</time>
      </trkpt>
      <trkpt lat="48.39287" lon="-4.4994">
        <ele>48.622</ele>
        <time>2011-04-12T11:32:59Z</time>
      </trkpt>
      <trkpt lat="48.39243" lon="-4.50156">
        <ele>49.701</ele>
        <time>2011-04-12T11:33:32Z</time>
      </trkpt>
      <trkpt lat="48.39239" lon="-4.5018">
        <ele>48.131</ele>
        <time>2011-04-12T11:33:35Z</time>
      </trkpt>
      <trkpt lat="48.39203" lon="-4.50361">
        <ele>46.221</ele>
        <time>2011-04-12T11:33:56Z</time>
      </trkpt>
      <trkpt lat="48.39203" lon="-4.50362">
        <ele>46.546</ele>
        <time>2011-04-12T11:34:00Z</time>
      </trkpt>
      <trkpt lat="48.39186" lon="-4.50426">
        <ele>47.628</ele>
        <time>2011-04-12T11:34:05Z</time>
      </trkpt>
      <trkpt lat="48.39155" lon="-4.50576">
        <ele>50.768</ele>
        <time>2011-04-12T11:34:28Z</time>
      </trkpt>
      <trkpt lat="48.39153" lon="-4.50583">
        <ele>51.05</ele>
        <time>2011-04-12T11:34:29Z</time>
      </trkpt>
      <trkpt lat="48.39122" lon="-4.50687">
        <ele>50.892</ele>
        <time>2011-04-12T11:34:47Z</time>
      </trkpt>
      <trkpt lat="48.39033" lon="-4.50706">
        <ele>49.966</ele>
        <time>2011-04-12T11:34:59Z</time>
      </trkpt>
      <trkpt lat="48.38933" lon="-4.50803">
        <ele>50.783</ele>
        <time>2011-04-12T11:35:17Z</time>
      </trkpt>
      <trkpt lat="48.38933" lon="-4.50821">
        <ele>53.845</ele>
        <time>2011-04-12T11:35:30Z</time>
      </trkpt>
      <trkpt lat="48.38919" lon="-4.50898">
        <ele>56.973</ele>
        <time>2011-04-12T11:35:35Z</time>
      </trkpt>
      <trkpt lat="48.3891" lon="-4.50935">
        <ele>56.773</ele>
        <time>2011-04-12T11:35:42Z</time>
      </trkpt>
      <trkpt lat="48.38898" lon="-4.50955">
        <ele>58.205</ele>
        <time>2011-04-12T11:35:46Z</time>
      </trkpt>
      <trkpt lat="48.38896" lon="-4.5096">
        <ele>58.495</ele>
        <time>2011-04-12T11:35:47Z</time>
      </trkpt>
      <trkpt lat="48.38869" lon="-4.51039">
        <ele>61.844</ele>
        <time>2011-04-12T11:36:02Z</time>
      </trkpt>
      <trkpt lat="48.38852" lon="-4.5109">
        <ele>65.129</ele>
        <time>2011-04-12T11:36:12Z</time>
      </trkpt>
      <trkpt lat="48.38787" lon="-4.51178">
        <ele>67.844</ele>
        <time>2011-04-12T11:36:25Z</time>
      </trkpt>
      <trkpt lat="48.38769" lon="-4.51218">
        <ele>71.046</ele>
        <time>2011-04-12T11:36:41Z</time>
      </trkpt>
      <trkpt lat="48.38752" lon="-4.51255">
        <ele>74.308</ele>
        <time>2011-04-12T11:37:00Z</time>
      </trkpt>
      <trkpt lat="48.38692" lon="-4.51362">
        <ele>75.796</ele>
        <time>2011-04-12T11:37:09Z</time>
      </trkpt>
      <trkpt lat="48.38647" lon="-4.5144">
        <ele>79.124</ele>
        <time>2011-04-12T11:37:30Z</time>
      </trkpt>
      <trkpt lat="48.38644" lon="-4.51444">
        <ele>79.846</ele>
        <time>2011-04-12T11:37:35Z</time>
      </trkpt>
      <trkpt lat="48.38659" lon="-4.51537">
        <ele>80.453</ele>
        <time>2011-04-12T11:37:40Z</time>
      </trkpt>
      <trkpt lat="48.38639" lon="-4.51572">
        <ele>80.608</ele>
        <time>2011-04-12T11:37:47Z</time>
      </trkpt>
      <trkpt lat="48.38628" lon="-4.51557">
        <ele>80.784</ele>
        <time>2011-04-12T11:37:49Z</time>
      </trkpt>
      <trkpt lat="48.38611" lon="-4.51579">
        <ele>81.34</ele>
        <time>2011-04-12T11:37:54Z</time>
      </trkpt>
      <trkpt lat="48.38551" lon="-4.51653">
        <ele>82.818</ele>
        <time>2011-04-12T11:38:12Z</time>
      </trkpt>
      <trkpt lat="48.38551" lon="-4.51654">
        <ele>82.996</ele>
        <time>2011-04-12T11:38:13Z</time>
      </trkpt>
      <trkpt lat="48.38576" lon="-4.51731">
        <ele>85.691</ele>
        <time>2011-04-12T11:38:24Z</time>
      </trkpt>
      <trkpt lat="48.38585" lon="-4.51756">
        <ele>86.348</ele>
        <time>2011-04-12T11:38:28Z</time>
      </trkpt>
      <trkpt lat="48.38585" lon="-4.51782">
        <ele>86.804</ele>
        <time>2011-04-12T11:38:32Z</time>
      </trkpt>
      <trkpt lat="48.38585" lon="-4.51954">
        <ele>89.154</ele>
        <time>2011-04-12T11:38:57Z</time>
      </trkpt>
      <trkpt lat="48.38571" lon="-4.5214">
        <ele>92.271</ele>
        <time>2011-04-12T11:39:24Z</time>
      </trkpt>
      <trkpt lat="48.38565" lon="-4.52206">
        <ele>93.519</ele>
        <time>2011-04-12T11:39:34Z</time>
      </trkpt>
      <trkpt lat="48.38562" lon="-4.5223">
        <ele>93.966</ele>
        <time>2011-04-12T11:39:38Z</time>
      </trkpt>
      <trkpt lat="48.38557" lon="-4.52273">
        <ele>94.546</ele>
        <time>2011-04-12T11:39:45Z</time>
      </trkpt>
      <trkpt lat="48.38535" lon="-4.52411">
        <ele>95.732</ele>
        <time>2011-04-12T11:40:05Z</time>
      </trkpt>
      <trkpt lat="48.38528" lon="-4.52471">
        <ele>95.82</ele>
        <time>2011-04-12T11:40:13Z</time>
      </trkpt>
      <trkpt lat="48.38525" lon="-4.52578">
        <ele>95.169</ele>
        <time>2011-04-12T11:40:27Z</time>
      </trkpt>
      <trkpt lat="48.38538" lon="-4.52735">
        <ele>95.877</ele>
        <time>2011-04-12T11:40:48Z</time>
      </trkpt>
      <trkpt lat="48.38538" lon="-4.52743">
        <ele>96.691</ele>
        <time>2011-04-12T11:40:57Z</time>
      </trkpt>
      <trkpt lat="48.38538" lon="-4.52782">
        <ele>96.506</ele>
        <time>2011-04-12T11:41:09Z</time>
      </trkpt>
      <trkpt lat="48.38538" lon="-4.52801">
        <ele>95.86</ele>
        <time>2011-04-12T11:41:12Z</time>
      </trkpt>
      <trkpt lat="48.38532" lon="-4.52911">
        <ele>96.24</ele>
        <time>2011-04-12T11:41:27Z</time>
      </trkpt>
      <trkpt lat="48.38515" lon="-4.5292">
        <ele>96.373</ele>
        <time>2011-04-12T11:41:34Z</time>
      </trkpt>
      <trkpt lat="48.38512" lon="-4.5292">
        <ele>97.174</ele>
        <time>2011-04-12T11:41:35Z</time>
      </trkpt>
      <trkpt lat="48.38451" lon="-4.52908">
        <ele>97.717</ele>
        <time>2011-04-12T11:41:48Z</time>
      </trkpt>
      <trkpt lat="48.38436" lon="-4.52913">
        <ele>97.399</ele>
        <time>2011-04-12T11:41:51Z</time>
      </trkpt>
      <trkpt lat="48.384" lon="-4.52942">
        <ele>97.516</ele>
        <time>2011-04-12T11:41:59Z</time>
      </trkpt>
      <trkpt lat="48.38388" lon="-4.52967">
        <ele>97.778</ele>
        <time>2011-04-12T11:42:03Z</time>
      </trkpt>
      <trkpt lat="48.38376" lon="-4.53009">
        <ele>97.379</ele>
        <time>2011-04-12T11:42:09Z</time>
      </trkpt>
      <trkpt lat="48.38368" lon="-4.53037">
        <ele>97.507</ele>
        <time>2011-04-12T11:42:13Z</time>
      </trkpt>
      <trkpt lat="48.38355" lon="-4.53079">
        <ele>95.788</ele>
        <time>2011-04-12T11:42:19Z</time>
      </trkpt>
      <trkpt lat="48.38338" lon="-4.5311">
        <ele>96.056</ele>
        <time>2011-04-12T11:42:24Z</time>
      </trkpt>
      <trkpt lat="48.38323" lon="-4.53163">
        <ele>97.223</ele>
        <time>2011-04-12T11:42:31Z</time>
      </trkpt>
      <trkpt lat="48.38323" lon="-4.53384">
        <ele>95.711</ele>
        <time>2011-04-12T11:42:58Z</time>
      </trkpt>
      <trkpt lat="48.38323" lon="-4.53546">
        <ele>95.442</ele>
        <time>2011-04-12T11:43:18Z</time>
      </trkpt>
      <trkpt lat="48.38317" lon="-4.53612">
        <ele>96.341</ele>
        <time>2011-04-12T11:43:31Z</time>
      </trkpt>
      <trkpt lat="48.38314" lon="-4.53639">
        <ele>96.582</ele>
        <time>2011-04-12T11:44:04Z</time>
      </trkpt>
      <trkpt lat="48.38293" lon="-4.53762">
        <ele>94.448</ele>
        <time>2011-04-12T11:44:21Z</time>
      </trkpt>
      <trkpt lat="48.38293" lon="-4.53817">
        <ele>94.425</ele>
        <time>2011-04-12T11:44:29Z</time>
      </trkpt>
      <trkpt lat="48.38293" lon="-4.53826">
        <ele>95.074</ele>
        <time>2011-04-12T11:44:34Z</time>
      </trkpt>
      <trkpt lat="48.3828" lon="-4.53978">
        <ele>93.068</ele>
        <time>2011-04-12T11:44:52Z</time>
      </trkpt>
      <trkpt lat="48.38274" lon="-4.54132">
        <ele>90.349</ele>
        <time>2011-04-12T11:45:11Z</time>
      </trkpt>
      <trkpt lat="48.38272" lon="-4.5416">
        <ele>89.506</ele>
        <time>2011-04-12T11:45:14Z</time>
      </trkpt>
      <trkpt lat="48.38256" lon="-4.54219">
        <ele>88.781</ele>
        <time>2011-04-12T11:45:21Z</time>
      </trkpt>
      <trkpt lat="48.38207" lon="-4.54308">
        <ele>87.427</ele>
        <time>2011-04-12T11:45:34Z</time>
      </trkpt>
      <trkpt lat="48.38196" lon="-4.5442">
        <ele>85.618</ele>
        <time>2011-04-12T11:45:46Z</time>
      </trkpt>
      <trkpt lat="48.38181" lon="-4.5459">
        <ele>82.129</ele>
        <time>2011-04-12T11:46:04Z</time>
      </trkpt>
      <trkpt lat="48.38179" lon="-4.54609">
        <ele>82.294</ele>
        <time>2011-04-12T11:46:06Z</time>
      </trkpt>
      <trkpt lat="48.38127" lon="-4.54702">
        <ele>82.507</ele>
        <time>2011-04-12T11:46:19Z</time>
      </trkpt>
      <trkpt lat="48.38076" lon="-4.54796">
        <ele>79.403</ele>
        <time>2011-04-12T11:46:32Z</time>
      </trkpt>
      <trkpt lat="48.38058" lon="-4.54832">
        <ele>79.26</ele>
        <time>2011-04-12T11:46:37Z</time>
      </trkpt>
      <trkpt lat="48.38015" lon="-4.54919">
        <ele>77.435</ele>
        <time>2011-04-12T11:46:48Z</time>
      </trkpt>
      <trkpt lat="48.37957" lon="-4.55047">
        <ele>77.718</ele>
        <time>2011-04-12T11:47:05Z</time>
      </trkpt>
      <trkpt lat="48.37893" lon="-4.55163">
        <ele>81.516</ele>
        <time>2011-04-12T11:47:24Z</time>
      </trkpt>
      <trkpt lat="48.37843" lon="-4.55276">
        <ele>83.832</ele>
        <time>2011-04-12T11:47:43Z</time>
      </trkpt>
      <trkpt lat="48.37794" lon="-4.55428">
        <ele>83.571</ele>
        <time>2011-04-12T11:48:04Z</time>
      </trkpt>
      <trkpt lat="48.37787" lon="-4.55443">
        <ele>84.215</ele>
        <time>2011-04-12T11:48:07Z</time>
      </trkpt>
      <trkpt lat="48.3775" lon="-4.55582">
        <ele>85.182</ele>
        <time>2011-04-12T11:48:26Z</time>
      </trkpt>
      <trkpt lat="48.3774" lon="-4.55645">
        <ele>86.295</ele>
        <time>2011-04-12T11:48:34Z</time>
      </trkpt>
      <trkpt lat="48.37722" lon="-4.5568">
        <ele>86.693</ele>
        <time>2011-04-12T11:48:41Z</time>
      </trkpt>
      <trkpt lat="48.3771" lon="-4.55688">
        <ele>86.496</ele>
        <time>2011-04-12T11:48:44Z</time>
      </trkpt>
      <trkpt lat="48.37679" lon="-4.55726">
        <ele>86.556</ele>
        <time>2011-04-12T11:48:53Z</time>
      </trkpt>
      <trkpt lat="48.37679" lon="-4.5575">
        <ele>86.527</ele>
        <time>2011-04-12T11:48:56Z</time>
      </trkpt>
      <trkpt lat="48.37683" lon="-4.55775">
        <ele>86.114</ele>
        <time>2011-04-12T11:48:59Z</time>
      </trkpt>
      <trkpt lat="48.37693" lon="-4.55831">
        <ele>84.891</ele>
        <time>2011-04-12T11:49:06Z</time>
      </trkpt>
      <trkpt lat="48.37696" lon="-4.55847">
        <ele>84.466</ele>
        <time>2011-04-12T11:49:08Z</time>
      </trkpt>
      <trkpt lat="48.37697" lon="-4.55907">
        <ele>81.267</ele>
        <time>2011-04-12T11:49:18Z</time>
      </trkpt>
      <trkpt lat="48.37691" lon="-4.55946">
        <ele>81.004</ele>
        <time>2011-04-12T11:49:19Z</time>
      </trkpt>
      <trkpt lat="48.37686" lon="-4.55982">
        <ele>80.405</ele>
        <time>2011-04-12T11:49:23Z</time>
      </trkpt>
      <trkpt lat="48.3768" lon="-4.56016">
        <ele>80.461</ele>
        <time>2011-04-12T11:49:27Z</time>
      </trkpt>
      <trkpt lat="48.37652" lon="-4.56123">
        <ele>84.394</ele>
        <time>2011-04-12T11:49:43Z</time>
      </trkpt>
      <trkpt lat="48.37644" lon="-4.56197">
        <ele>85.975</ele>
        <time>2011-04-12T11:49:53Z</time>
      </trkpt>
      <trkpt lat="48.37604" lon="-4.56311">
        <ele>87.385</ele>
        <time>2011-04-12T11:50:10Z</time>
      </trkpt>
      <trkpt lat="48.37555" lon="-4.56435">
        <ele>89.145</ele>
        <time>2011-04-12T11:50:29Z</time>
      </trkpt>
      <trkpt lat="48.37548" lon="-4.5646">
        <ele>88.972</ele>
        <time>2011-04-12T11:50:33Z</time>
      </trkpt>
      <trkpt lat="48.37545" lon="-4.56473">
        <ele>89.825</ele>
        <time>2011-04-12T11:50:35Z</time>
      </trkpt>
      <trkpt lat="48.37539" lon="-4.56505">
        <ele>88.844</ele>
        <time>2011-04-12T11:50:40Z</time>
      </trkpt>
      <trkpt lat="48.37515" lon="-4.56635">
        <ele>89.108</ele>
        <time>2011-04-12T11:50:58Z</time>
      </trkpt>
      <trkpt lat="48.37513" lon="-4.56681">
        <ele>90.002</ele>
        <time>2011-04-12T11:51:09Z</time>
      </trkpt>
      <trkpt lat="48.37512" lon="-4.56706">
        <ele>89.808</ele>
        <time>2011-04-12T11:51:20Z</time>
      </trkpt>
      <trkpt lat="48.37512" lon="-4.56709">
        <ele>89.847</ele>
        <time>2011-04-12T11:51:25Z</time>
      </trkpt>
      <trkpt lat="48.37566" lon="-4.56729">
        <ele>89.181</ele>
        <time>2011-04-12T11:51:39Z</time>
      </trkpt>
      <trkpt lat="48.37588" lon="-4.56744">
        <ele>89.625</ele>
        <time>2011-04-12T11:51:44Z</time>
      </trkpt>
      <trkpt lat="48.37615" lon="-4.56759">
        <ele>87.267</ele>
        <time>2011-04-12T11:51:49Z</time>
      </trkpt>
      <trkpt lat="48.37661" lon="-4.56763">
        <ele>86.342</ele>
        <time>2011-04-12T11:51:57Z</time>
      </trkpt>
      <trkpt lat="48.3772" lon="-4.5675">
        <ele>85.417</ele>
        <time>2011-04-12T11:52:08Z</time>
      </trkpt>
      <trkpt lat="48.37804" lon="-4.56748">
        <ele>81.07</ele>
        <time>2011-04-12T11:52:22Z</time>
      </trkpt>
      <trkpt lat="48.37825" lon="-4.56748">
        <ele>79.527</ele>
        <time>2011-04-12T11:52:25Z</time>
      </trkpt>
      <trkpt lat="48.37862" lon="-4.56745">
        <ele>77.886</ele>
        <time>2011-04-12T11:52:30Z</time>
      </trkpt>
      <trkpt lat="48.37893" lon="-4.56741">
        <ele>75.783</ele>
        <time>2011-04-12T11:52:34Z</time>
      </trkpt>
      <trkpt lat="48.379" lon="-4.5674">
        <ele>75.482</ele>
        <time>2011-04-12T11:52:35Z</time>
      </trkpt>
      <trkpt lat="48.37926" lon="-4.56776">
        <ele>76.187</ele>
        <time>2011-04-12T11:52:41Z</time>
      </trkpt>
      <trkpt lat="48.3793" lon="-4.56784">
        <ele>76.569</ele>
        <time>2011-04-12T11:52:42Z</time>
      </trkpt>
      <trkpt lat="48.37958" lon="-4.56943">
        <ele>77.442</ele>
        <time>2011-04-12T11:53:01Z</time>
      </trkpt>
      <trkpt lat="48.37979" lon="-4.57034">
        <ele>73.983</ele>
        <time>2011-04-12T11:53:11Z</time>
      </trkpt>
      <trkpt lat="48.37995" lon="-4.57078">
        <ele>74.872</ele>
        <time>2011-04-12T11:53:16Z</time>
      </trkpt>
      <trkpt lat="48.38037" lon="-4.5713">
        <ele>71.538</ele>
        <time>2011-04-12T11:53:24Z</time>
      </trkpt>
      <trkpt lat="48.38056" lon="-4.57167">
        <ele>68.964</ele>
        <time>2011-04-12T11:53:28Z</time>
      </trkpt>
      <trkpt lat="48.38069" lon="-4.5721">
        <ele>68.923</ele>
        <time>2011-04-12T11:53:32Z</time>
      </trkpt>
      <trkpt lat="48.38071" lon="-4.57349">
        <ele>69.9</ele>
        <time>2011-04-12T11:53:46Z</time>
      </trkpt>
      <trkpt lat="48.3808" lon="-4.57507">
        <ele>69.66</ele>
        <time>2011-04-12T11:54:04Z</time>
      </trkpt>
      <trkpt lat="48.38087" lon="-4.57568">
        <ele>68.729</ele>
        <time>2011-04-12T11:54:13Z</time>
      </trkpt>
      <trkpt lat="48.38099" lon="-4.57608">
        <ele>68.578</ele>
        <time>2011-04-12T11:54:19Z</time>
      </trkpt>
      <trkpt lat="48.381" lon="-4.5766">
        <ele>68.042</ele>
        <time>2011-04-12T11:54:27Z</time>
      </trkpt>
      <trkpt lat="48.381" lon="-4.57662">
        <ele>66.51</ele>
        <time>2011-04-12T11:54:29Z</time>
      </trkpt>
      <trkpt lat="48.38108" lon="-4.57708">
        <ele>65.257</ele>
        <time>2011-04-12T11:54:32Z</time>
      </trkpt>
      <trkpt lat="48.38113" lon="-4.57737">
        <ele>63.64</ele>
        <time>2011-04-12T11:54:35Z</time>
      </trkpt>
      <trkpt lat="48.38121" lon="-4.57778">
        <ele>61.446</ele>
        <time>2011-04-12T11:54:39Z</time>
      </trkpt>
      <trkpt lat="48.38135" lon="-4.57858">
        <ele>58.013</ele>
        <time>2011-04-12T11:54:46Z</time>
      </trkpt>
      <trkpt lat="48.38142" lon="-4.57894">
        <ele>56.483</ele>
        <time>2011-04-12T11:54:49Z</time>
      </trkpt>
      <trkpt lat="48.3815" lon="-4.57931">
        <ele>55.177</ele>
        <time>2011-04-12T11:54:52Z</time>
      </trkpt>
      <trkpt lat="48.38171" lon="-4.58016">
        <ele>51.724</ele>
        <time>2011-04-12T11:54:59Z</time>
      </trkpt>
      <trkpt lat="48.38174" lon="-4.58028">
        <ele>51.701</ele>
        <time>2011-04-12T11:55:00Z</time>
      </trkpt>
      <trkpt lat="48.38225" lon="-4.5823">
        <ele>50.967</ele>
        <time>2011-04-12T11:55:19Z</time>
      </trkpt>
      <trkpt lat="48.38286" lon="-4.58425">
        <ele>49.18</ele>
        <time>2011-04-12T11:55:40Z</time>
      </trkpt>
      <trkpt lat="48.38382" lon="-4.58604">
        <ele>48.473</ele>
        <time>2011-04-12T11:56:04Z</time>
      </trkpt>
      <trkpt lat="48.38439" lon="-4.58711">
        <ele>49.916</ele>
        <time>2011-04-12T11:56:20Z</time>
      </trkpt>
      <trkpt lat="48.38536" lon="-4.58846">
        <ele>51.784</ele>
        <time>2011-04-12T11:56:45Z</time>
      </trkpt>
      <trkpt lat="48.38572" lon="-4.58939">
        <ele>53.79</ele>
        <time>2011-04-12T11:57:00Z</time>
      </trkpt>
      <trkpt lat="48.38593" lon="-4.58992">
        <ele>56.794</ele>
        <time>2011-04-12T11:57:09Z</time>
      </trkpt>
      <trkpt lat="48.38612" lon="-4.59046">
        <ele>59.979</ele>
        <time>2011-04-12T11:57:19Z</time>
      </trkpt>
      <trkpt lat="48.38621" lon="-4.59097">
        <ele>63.149</ele>
        <time>2011-04-12T11:57:29Z</time>
      </trkpt>
      <trkpt lat="48.3863" lon="-4.59181">
        <ele>66.492</ele>
        <time>2011-04-12T11:57:44Z</time>
      </trkpt>
      <trkpt lat="48.38636" lon="-4.59245">
        <ele>69.654</ele>
        <time>2011-04-12T11:57:56Z</time>
      </trkpt>
      <trkpt lat="48.38661" lon="-4.59283">
        <ele>70.491</ele>
        <time>2011-04-12T11:58:04Z</time>
      </trkpt>
      <trkpt lat="48.38688" lon="-4.5931">
        <ele>70.11</ele>
        <time>2011-04-12T11:58:11Z</time>
      </trkpt>
      <trkpt lat="48.38741" lon="-4.59364">
        <ele>68.291</ele>
        <time>2011-04-12T11:58:23Z</time>
      </trkpt>
      <trkpt lat="48.38834" lon="-4.59444">
        <ele>67.613</ele>
        <time>2011-04-12T11:58:42Z</time>
      </trkpt>
      <trkpt lat="48.3891" lon="-4.59505">
        <ele>64.289</ele>
        <time>2011-04-12T11:58:56Z</time>
      </trkpt>
      <trkpt lat="48.38916" lon="-4.59509">
        <ele>64.036</ele>
        <time>2011-04-12T11:58:57Z</time>
      </trkpt>
      <trkpt lat="48.38953" lon="-4.59523">
        <ele>60.935</ele>
        <time>2011-04-12T11:59:02Z</time>
      </trkpt>
      <trkpt lat="48.38969" lon="-4.59527">
        <ele>59.266</ele>
        <time>2011-04-12T11:59:04Z</time>
      </trkpt>
      <trkpt lat="48.39035" lon="-4.59541">
        <ele>56.034</ele>
        <time>2011-04-12T11:59:12Z</time>
      </trkpt>
      <trkpt lat="48.39075" lon="-4.5955">
        <ele>55.545</ele>
        <time>2011-04-12T11:59:17Z</time>
      </trkpt>
      <trkpt lat="48.39155" lon="-4.59602">
        <ele>56.303</ele>
        <time>2011-04-12T11:59:30Z</time>
      </trkpt>
      <trkpt lat="48.39165" lon="-4.5961">
        <ele>57.043</ele>
        <time>2011-04-12T11:59:32Z</time>
      </trkpt>
      <trkpt lat="48.39216" lon="-4.59649">
        <ele>60.212</ele>
        <time>2011-04-12T11:59:43Z</time>
      </trkpt>
      <trkpt lat="48.39279" lon="-4.59681">
        <ele>63.267</ele>
        <time>2011-04-12T11:59:57Z</time>
      </trkpt>
      <trkpt lat="48.39345" lon="-4.59725">
        <ele>66.311</ele>
        <time>2011-04-12T12:00:12Z</time>
      </trkpt>
      <trkpt lat="48.39349" lon="-4.59728">
        <ele>66.236</ele>
        <time>2011-04-12T12:00:13Z</time>
      </trkpt>
      <trkpt lat="48.39424" lon="-4.59772">
        <ele>62.891</ele>
        <time>2011-04-12T12:00:28Z</time>
      </trkpt>
      <trkpt lat="48.39524" lon="-4.59811">
        <ele>59.85</ele>
        <time>2011-04-12T12:00:45Z</time>
      </trkpt>
      <trkpt lat="48.39605" lon="-4.5983">
        <ele>57.141</ele>
        <time>2011-04-12T12:00:58Z</time>
      </trkpt>
      <trkpt lat="48.3964" lon="-4.59838">
        <ele>54.69</ele>
        <time>2011-04-12T12:01:03Z</time>
      </trkpt>
      <trkpt lat="48.39705" lon="-4.59875">
        <ele>51.666</ele>
        <time>2011-04-12T12:01:12Z</time>
      </trkpt>
      <trkpt lat="48.39763" lon="-4.59914">
        <ele>48.89</ele>
        <time>2011-04-12T12:01:20Z</time>
      </trkpt>
      <trkpt lat="48.3979" lon="-4.59951">
        <ele>47.277</ele>
        <time>2011-04-12T12:01:25Z</time>
      </trkpt>
      <trkpt lat="48.39794" lon="-4.59962">
        <ele>47.19</ele>
        <time>2011-04-12T12:01:26Z</time>
      </trkpt>
      <trkpt lat="48.39805" lon="-4.59993">
        <ele>45.659</ele>
        <time>2011-04-12T12:01:29Z</time>
      </trkpt>
      <trkpt lat="48.39833" lon="-4.6003">
        <ele>46.188</ele>
        <time>2011-04-12T12:01:34Z</time>
      </trkpt>
      <trkpt lat="48.39876" lon="-4.60068">
        <ele>47.51</ele>
        <time>2011-04-12T12:01:42Z</time>
      </trkpt>
      <trkpt lat="48.39887" lon="-4.60074">
        <ele>47.687</ele>
        <time>2011-04-12T12:01:44Z</time>
      </trkpt>
      <trkpt lat="48.39911" lon="-4.60086">
        <ele>49.935</ele>
        <time>2011-04-12T12:01:49Z</time>
      </trkpt>
      <trkpt lat="48.39964" lon="-4.60104">
        <ele>53.497</ele>
        <time>2011-04-12T12:02:01Z</time>
      </trkpt>
      <trkpt lat="48.40041" lon="-4.60106">
        <ele>55.424</ele>
        <time>2011-04-12T12:02:17Z</time>
      </trkpt>
      <trkpt lat="48.40123" lon="-4.60108">
        <ele>54.295</ele>
        <time>2011-04-12T12:02:32Z</time>
      </trkpt>
      <trkpt lat="48.40146" lon="-4.60105">
        <ele>53.647</ele>
        <time>2011-04-12T12:02:36Z</time>
      </trkpt>
      <trkpt lat="48.40217" lon="-4.60059">
        <ele>53.794</ele>
        <time>2011-04-12T12:02:49Z</time>
      </trkpt>
      <trkpt lat="48.40281" lon="-4.59952">
        <ele>55.04</ele>
        <time>2011-04-12T12:03:06Z</time>
      </trkpt>
      <trkpt lat="48.40358" lon="-4.59806">
        <ele>53.441</ele>
        <time>2011-04-12T12:03:29Z</time>
      </trkpt>
      <trkpt lat="48.40385" lon="-4.59749">
        <ele>50.882</ele>
        <time>2011-04-12T12:03:36Z</time>
      </trkpt>
      <trkpt lat="48.40412" lon="-4.59684">
        <ele>47.431</ele>
        <time>2011-04-12T12:03:43Z</time>
      </trkpt>
      <trkpt lat="48.40428" lon="-4.59644">
        <ele>44.032</ele>
        <time>2011-04-12T12:03:47Z</time>
      </trkpt>
      <trkpt lat="48.40432" lon="-4.59634">
        <ele>43.789</ele>
        <time>2011-04-12T12:03:48Z</time>
      </trkpt>
      <trkpt lat="48.40465" lon="-4.59517">
        <ele>42.975</ele>
        <time>2011-04-12T12:03:59Z</time>
      </trkpt>
      <trkpt lat="48.40466" lon="-4.59422">
        <ele>39.146</ele>
        <time>2011-04-12T12:04:07Z</time>
      </trkpt>
      <trkpt lat="48.40475" lon="-4.59278">
        <ele>38.084</ele>
        <time>2011-04-12T12:04:21Z</time>
      </trkpt>
      <trkpt lat="48.40481" lon="-4.59259">
        <ele>36.933</ele>
        <time>2011-04-12T12:04:23Z</time>
      </trkpt>
      <trkpt lat="48.40494" lon="-4.59222">
        <ele>37.397</ele>
        <time>2011-04-12T12:04:27Z</time>
      </trkpt>
      <trkpt lat="48.40515" lon="-4.59192">
        <ele>36.032</ele>
        <time>2011-04-12T12:04:31Z</time>
      </trkpt>
      <trkpt lat="48.40586" lon="-4.59132">
        <ele>37.126</ele>
        <time>2011-04-12T12:04:43Z</time>
      </trkpt>
      <trkpt lat="48.4063" lon="-4.59151">
        <ele>39.02</ele>
        <time>2011-04-12T12:04:51Z</time>
      </trkpt>
      <trkpt lat="48.40635" lon="-4.59156">
        <ele>39.249</ele>
        <time>2011-04-12T12:04:52Z</time>
      </trkpt>
      <trkpt lat="48.40658" lon="-4.59182">
        <ele>41.346</ele>
        <time>2011-04-12T12:04:57Z</time>
      </trkpt>
      <trkpt lat="48.40742" lon="-4.59234">
        <ele>41.592</ele>
        <time>2011-04-12T12:05:13Z</time>
      </trkpt>
      <trkpt lat="48.40754" lon="-4.59242">
        <ele>40.918</ele>
        <time>2011-04-12T12:05:15Z</time>
      </trkpt>
      <trkpt lat="48.40762" lon="-4.59247">
        <ele>40.215</ele>
        <time>2011-04-12T12:05:16Z</time>
      </trkpt>
      <trkpt lat="48.40779" lon="-4.59283">
        <ele>37.584</ele>
        <time>2011-04-12T12:05:20Z</time>
      </trkpt>
      <trkpt lat="48.40794" lon="-4.59312">
        <ele>36.143</ele>
        <time>2011-04-12T12:05:23Z</time>
      </trkpt>
      <trkpt lat="48.4082" lon="-4.59343">
        <ele>34.746</ele>
        <time>2011-04-12T12:05:27Z</time>
      </trkpt>
      <trkpt lat="48.4084" lon="-4.59362">
        <ele>34.367</ele>
        <time>2011-04-12T12:05:30Z</time>
      </trkpt>
      <trkpt lat="48.40924" lon="-4.59406">
        <ele>33.819</ele>
        <time>2011-04-12T12:05:41Z</time>
      </trkpt>
      <trkpt lat="48.41049" lon="-4.59485">
        <ele>34.601</ele>
        <time>2011-04-12T12:06:00Z</time>
      </trkpt>
      <trkpt lat="48.41088" lon="-4.59535">
        <ele>35.371</ele>
        <time>2011-04-12T12:06:08Z</time>
      </trkpt>
      <trkpt lat="48.41102" lon="-4.59552">
        <ele>36.018</ele>
        <time>2011-04-12T12:06:11Z</time>
      </trkpt>
      <trkpt lat="48.41172" lon="-4.596">
        <ele>38.432</ele>
        <time>2011-04-12T12:06:25Z</time>
      </trkpt>
      <trkpt lat="48.41186" lon="-4.5961">
        <ele>38.874</ele>
        <time>2011-04-12T12:06:28Z</time>
      </trkpt>
      <trkpt lat="48.41233" lon="-4.59642">
        <ele>36.142</ele>
        <time>2011-04-12T12:06:37Z</time>
      </trkpt>
      <trkpt lat="48.41356" lon="-4.59737">
        <ele>35.756</ele>
        <time>2011-04-12T12:06:59Z</time>
      </trkpt>
      <trkpt lat="48.41466" lon="-4.59825">
        <ele>36.727</ele>
        <time>2011-04-12T12:07:21Z</time>
      </trkpt>
      <trkpt lat="48.41471" lon="-4.59829">
        <ele>36.326</ele>
        <time>2011-04-12T12:07:22Z</time>
      </trkpt>
      <trkpt lat="48.41509" lon="-4.59859">
        <ele>37.641</ele>
        <time>2011-04-12T12:07:30Z</time>
      </trkpt>
      <trkpt lat="48.41531" lon="-4.59838">
        <ele>37.17</ele>
        <time>2011-04-12T12:07:36Z</time>
      </trkpt>
      <trkpt lat="48.41548" lon="-4.59781">
        <ele>34.505</ele>
        <time>2011-04-12T12:07:43Z</time>
      </trkpt>
      <trkpt lat="48.41567" lon="-4.59635">
        <ele>33.623</ele>
        <time>2011-04-12T12:08:00Z</time>
      </trkpt>
      <trkpt lat="48.41553" lon="-4.59453">
        <ele>31.959</ele>
        <time>2011-04-12T12:08:21Z</time>
      </trkpt>
      <trkpt lat="48.41473" lon="-4.59323">
        <ele>31.787</ele>
        <time>2011-04-12T12:08:35Z</time>
      </trkpt>
      <trkpt lat="48.4144" lon="-4.59282">
        <ele>33.115</ele>
        <time>2011-04-12T12:08:48Z</time>
      </trkpt>
      <trkpt lat="48.41399" lon="-4.59199">
        <ele>32.038</ele>
        <time>2011-04-12T12:09:00Z</time>
      </trkpt>
      <trkpt lat="48.41407" lon="-4.59051">
        <ele>33.506</ele>
        <time>2011-04-12T12:09:17Z</time>
      </trkpt>
      <trkpt lat="48.41422" lon="-4.58873">
        <ele>36.467</ele>
        <time>2011-04-12T12:09:41Z</time>
      </trkpt>
      <trkpt lat="48.41431" lon="-4.58732">
        <ele>38.821</ele>
        <time>2011-04-12T12:10:01Z</time>
      </trkpt>
      <trkpt lat="48.41441" lon="-4.58575">
        <ele>39.221</ele>
        <time>2011-04-12T12:10:21Z</time>
      </trkpt>
      <trkpt lat="48.41457" lon="-4.58358">
        <ele>40.151</ele>
        <time>2011-04-12T12:10:48Z</time>
      </trkpt>
      <trkpt lat="48.41455" lon="-4.58212">
        <ele>43.269</ele>
        <time>2011-04-12T12:11:08Z</time>
      </trkpt>
      <trkpt lat="48.41451" lon="-4.5813">
        <ele>46.612</ele>
        <time>2011-04-12T12:11:21Z</time>
      </trkpt>
      <trkpt lat="48.41447" lon="-4.58074">
        <ele>49.683</ele>
        <time>2011-04-12T12:11:35Z</time>
      </trkpt>
      <trkpt lat="48.41444" lon="-4.58044">
        <ele>50.738</ele>
        <time>2011-04-12T12:11:37Z</time>
      </trkpt>
      <trkpt lat="48.41443" lon="-4.58029">
        <ele>51.98</ele>
        <time>2011-04-12T12:11:40Z</time>
      </trkpt>
      <trkpt lat="48.41437" lon="-4.57983">
        <ele>55.316</ele>
        <time>2011-04-12T12:11:50Z</time>
      </trkpt>
      <trkpt lat="48.41429" lon="-4.57935">
        <ele>58.325</ele>
        <time>2011-04-12T12:12:00Z</time>
      </trkpt>
      <trkpt lat="48.4142" lon="-4.57901">
        <ele>60.713</ele>
        <time>2011-04-12T12:12:07Z</time>
      </trkpt>
      <trkpt lat="48.41392" lon="-4.57812">
        <ele>62.655</ele>
        <time>2011-04-12T12:12:24Z</time>
      </trkpt>
      <trkpt lat="48.41354" lon="-4.57658">
        <ele>63.267</ele>
        <time>2011-04-12T12:12:49Z</time>
      </trkpt>
      <trkpt lat="48.41322" lon="-4.57517">
        <ele>61.598</ele>
        <time>2011-04-12T12:13:08Z</time>
      </trkpt>
      <trkpt lat="48.41315" lon="-4.575">
        <ele>61.353</ele>
        <time>2011-04-12T12:13:10Z</time>
      </trkpt>
      <trkpt lat="48.413" lon="-4.57467">
        <ele>60.621</ele>
        <time>2011-04-12T12:13:14Z</time>
      </trkpt>
      <trkpt lat="48.41292" lon="-4.57449">
        <ele>59.657</ele>
        <time>2011-04-12T12:13:16Z</time>
      </trkpt>
      <trkpt lat="48.41271" lon="-4.57401">
        <ele>56.188</ele>
        <time>2011-04-12T12:13:21Z</time>
      </trkpt>
      <trkpt lat="48.41266" lon="-4.57391">
        <ele>56.046</ele>
        <time>2011-04-12T12:13:22Z</time>
      </trkpt>
      <trkpt lat="48.4123" lon="-4.57248">
        <ele>53.568</ele>
        <time>2011-04-12T12:13:35Z</time>
      </trkpt>
      <trkpt lat="48.41234" lon="-4.57184">
        <ele>56.805</ele>
        <time>2011-04-12T12:13:42Z</time>
      </trkpt>
      <trkpt lat="48.41237" lon="-4.57134">
        <ele>60.562</ele>
        <time>2011-04-12T12:13:50Z</time>
      </trkpt>
      <trkpt lat="48.41237" lon="-4.57124">
        <ele>61.462</ele>
        <time>2011-04-12T12:13:52Z</time>
      </trkpt>
      <trkpt lat="48.41239" lon="-4.57095">
        <ele>64.161</ele>
        <time>2011-04-12T12:13:58Z</time>
      </trkpt>
      <trkpt lat="48.41244" lon="-4.57047">
        <ele>67.326</ele>
        <time>2011-04-12T12:14:07Z</time>
      </trkpt>
      <trkpt lat="48.41254" lon="-4.56992">
        <ele>70.608</ele>
        <time>2011-04-12T12:14:18Z</time>
      </trkpt>
      <trkpt lat="48.41267" lon="-4.56939">
        <ele>73.836</ele>
        <time>2011-04-12T12:14:29Z</time>
      </trkpt>
      <trkpt lat="48.41283" lon="-4.56878">
        <ele>77.134</ele>
        <time>2011-04-12T12:14:42Z</time>
      </trkpt>
      <trkpt lat="48.41297" lon="-4.56807">
        <ele>80.291</ele>
        <time>2011-04-12T12:14:56Z</time>
      </trkpt>
      <trkpt lat="48.41314" lon="-4.567">
        <ele>83.133</ele>
        <time>2011-04-12T12:15:17Z</time>
      </trkpt>
      <trkpt lat="48.41314" lon="-4.56605">
        <ele>82.153</ele>
        <time>2011-04-12T12:15:35Z</time>
      </trkpt>
      <trkpt lat="48.4131" lon="-4.56553">
        <ele>81.146</ele>
        <time>2011-04-12T12:15:42Z</time>
      </trkpt>
      <trkpt lat="48.41266" lon="-4.56412">
        <ele>79.413</ele>
        <time>2011-04-12T12:16:02Z</time>
      </trkpt>
      <trkpt lat="48.41218" lon="-4.56262">
        <ele>76.227</ele>
        <time>2011-04-12T12:16:20Z</time>
      </trkpt>
      <trkpt lat="48.41177" lon="-4.5609">
        <ele>74.429</ele>
        <time>2011-04-12T12:16:41Z</time>
      </trkpt>
      <trkpt lat="48.41144" lon="-4.56068">
        <ele>73.365</ele>
        <time>2011-04-12T12:16:47Z</time>
      </trkpt>
      <trkpt lat="48.41102" lon="-4.56073">
        <ele>70.399</ele>
        <time>2011-04-12T12:16:53Z</time>
      </trkpt>
      <trkpt lat="48.41095" lon="-4.56076">
        <ele>69.493</ele>
        <time>2011-04-12T12:16:54Z</time>
      </trkpt>
      <trkpt lat="48.41024" lon="-4.5613">
        <ele>66.073</ele>
        <time>2011-04-12T12:17:03Z</time>
      </trkpt>
      <trkpt lat="48.41016" lon="-4.56138">
        <ele>65.986</ele>
        <time>2011-04-12T12:17:04Z</time>
      </trkpt>
      <trkpt lat="48.40971" lon="-4.56174">
        <ele>62.941</ele>
        <time>2011-04-12T12:17:09Z</time>
      </trkpt>
      <trkpt lat="48.40962" lon="-4.56182">
        <ele>62.714</ele>
        <time>2011-04-12T12:17:10Z</time>
      </trkpt>
      <trkpt lat="48.40926" lon="-4.56215">
        <ele>60.746</ele>
        <time>2011-04-12T12:17:14Z</time>
      </trkpt>
      <trkpt lat="48.4078" lon="-4.5635">
        <ele>59.661</ele>
        <time>2011-04-12T12:17:32Z</time>
      </trkpt>
      <trkpt lat="48.40677" lon="-4.56445">
        <ele>61.903</ele>
        <time>2011-04-12T12:17:48Z</time>
      </trkpt>
      <trkpt lat="48.40573" lon="-4.56544">
        <ele>63.772</ele>
        <time>2011-04-12T12:18:08Z</time>
      </trkpt>
      <trkpt lat="48.40507" lon="-4.56633">
        <ele>62.435</ele>
        <time>2011-04-12T12:18:22Z</time>
      </trkpt>
      <trkpt lat="48.40458" lon="-4.56667">
        <ele>59.036</ele>
        <time>2011-04-12T12:18:29Z</time>
      </trkpt>
      <trkpt lat="48.4045" lon="-4.56672">
        <ele>58.742</ele>
        <time>2011-04-12T12:18:30Z</time>
      </trkpt>
      <trkpt lat="48.40433" lon="-4.56683">
        <ele>57.719</ele>
        <time>2011-04-12T12:18:32Z</time>
      </trkpt>
      <trkpt lat="48.40344" lon="-4.56731">
        <ele>54.33</ele>
        <time>2011-04-12T12:18:42Z</time>
      </trkpt>
      <trkpt lat="48.40303" lon="-4.56769">
        <ele>52.992</ele>
        <time>2011-04-12T12:18:47Z</time>
      </trkpt>
      <trkpt lat="48.40247" lon="-4.56829">
        <ele>50.142</ele>
        <time>2011-04-12T12:18:54Z</time>
      </trkpt>
      <trkpt lat="48.40216" lon="-4.56863">
        <ele>49.28</ele>
        <time>2011-04-12T12:18:58Z</time>
      </trkpt>
      <trkpt lat="48.40184" lon="-4.56897">
        <ele>47.439</ele>
        <time>2011-04-12T12:19:02Z</time>
      </trkpt>
      <trkpt lat="48.4015" lon="-4.56933">
        <ele>45.21</ele>
        <time>2011-04-12T12:19:06Z</time>
      </trkpt>
      <trkpt lat="48.40103" lon="-4.56971">
        <ele>42.601</ele>
        <time>2011-04-12T12:19:11Z</time>
      </trkpt>
      <trkpt lat="48.39994" lon="-4.57055">
        <ele>41.694</ele>
        <time>2011-04-12T12:19:23Z</time>
      </trkpt>
      <trkpt lat="48.3985" lon="-4.57137">
        <ele>38.429</ele>
        <time>2011-04-12T12:19:40Z</time>
      </trkpt>
      <trkpt lat="48.39775" lon="-4.5717">
        <ele>38.568</ele>
        <time>2011-04-12T12:19:50Z</time>
      </trkpt>
      <trkpt lat="48.39653" lon="-4.57208">
        <ele>39.429</ele>
        <time>2011-04-12T12:20:08Z</time>
      </trkpt>
      <trkpt lat="48.39475" lon="-4.57247">
        <ele>39.787</ele>
        <time>2011-04-12T12:20:35Z</time>
      </trkpt>
      <trkpt lat="48.39371" lon="-4.57316">
        <ele>41.125</ele>
        <time>2011-04-12T12:20:53Z</time>
      </trkpt>
      <trkpt lat="48.39245" lon="-4.57349">
        <ele>42.297</ele>
        <time>2011-04-12T12:21:14Z</time>
      </trkpt>
      <trkpt lat="48.39059" lon="-4.57387">
        <ele>44.232</ele>
        <time>2011-04-12T12:21:45Z</time>
      </trkpt>
      <trkpt lat="48.38898" lon="-4.57437">
        <ele>44.973</ele>
        <time>2011-04-12T12:22:13Z</time>
      </trkpt>
      <trkpt lat="48.38719" lon="-4.57508">
        <ele>47.845</ele>
        <time>2011-04-12T12:22:45Z</time>
      </trkpt>
      <trkpt lat="48.38611" lon="-4.57551">
        <ele>50.123</ele>
        <time>2011-04-12T12:23:09Z</time>
      </trkpt>
      <trkpt lat="48.3845" lon="-4.57608">
        <ele>52.114</ele>
        <time>2011-04-12T12:23:39Z</time>
      </trkpt>
      <trkpt lat="48.38345" lon="-4.57608">
        <ele>54.262</ele>
        <time>2011-04-12T12:24:01Z</time>
      </trkpt>
      <trkpt lat="48.38252" lon="-4.57592">
        <ele>56.482</ele>
        <time>2011-04-12T12:24:21Z</time>
      </trkpt>
      <trkpt lat="48.38198" lon="-4.57589">
        <ele>59.727</ele>
        <time>2011-04-12T12:24:34Z</time>
      </trkpt>
      <trkpt lat="48.38158" lon="-4.57593">
        <ele>63.118</ele>
        <time>2011-04-12T12:24:45Z</time>
      </trkpt>
      <trkpt lat="48.38117" lon="-4.57605">
        <ele>66.452</ele>
        <time>2011-04-12T12:24:57Z</time>
      </trkpt>
      <trkpt lat="48.381" lon="-4.57653">
        <ele>66.889</ele>
        <time>2011-04-12T12:25:06Z</time>
      </trkpt>
      <trkpt lat="48.381" lon="-4.57662">
        <ele>66.13</ele>
        <time>2011-04-12T12:25:10Z</time>
      </trkpt>
      <trkpt lat="48.38114" lon="-4.5774">
        <ele>62.98</ele>
        <time>2011-04-12T12:25:17Z</time>
      </trkpt>
      <trkpt lat="48.3813" lon="-4.57827">
        <ele>58.853</ele>
        <time>2011-04-12T12:25:25Z</time>
      </trkpt>
      <trkpt lat="48.38132" lon="-4.57839">
        <ele>58.672</ele>
        <time>2011-04-12T12:25:26Z</time>
      </trkpt>
      <trkpt lat="48.38144" lon="-4.57904">
        <ele>55</ele>
        <time>2011-04-12T12:25:31Z</time>
      </trkpt>
      <trkpt lat="48.38147" lon="-4.57918">
        <ele>54.944</ele>
        <time>2011-04-12T12:25:32Z</time>
      </trkpt>
      <trkpt lat="48.38164" lon="-4.57985">
        <ele>51.794</ele>
        <time>2011-04-12T12:25:37Z</time>
      </trkpt>
      <trkpt lat="48.38217" lon="-4.58199">
        <ele>49.465</ele>
        <time>2011-04-12T12:25:55Z</time>
      </trkpt>
      <trkpt lat="48.38271" lon="-4.58395">
        <ele>48.486</ele>
        <time>2011-04-12T12:26:15Z</time>
      </trkpt>
      <trkpt lat="48.38352" lon="-4.58548">
        <ele>46.774</ele>
        <time>2011-04-12T12:26:35Z</time>
      </trkpt>
      <trkpt lat="48.38416" lon="-4.58679">
        <ele>48.154</ele>
        <time>2011-04-12T12:26:54Z</time>
      </trkpt>
      <trkpt lat="48.38494" lon="-4.58786">
        <ele>49.728</ele>
        <time>2011-04-12T12:27:14Z</time>
      </trkpt>
      <trkpt lat="48.38555" lon="-4.58894">
        <ele>51.887</ele>
        <time>2011-04-12T12:27:34Z</time>
      </trkpt>
      <trkpt lat="48.38579" lon="-4.58956">
        <ele>53.713</ele>
        <time>2011-04-12T12:27:45Z</time>
      </trkpt>
      <trkpt lat="48.3859" lon="-4.58984">
        <ele>55.12</ele>
        <time>2011-04-12T12:27:50Z</time>
      </trkpt>
      <trkpt lat="48.38612" lon="-4.59046">
        <ele>58.745</ele>
        <time>2011-04-12T12:28:02Z</time>
      </trkpt>
      <trkpt lat="48.38624" lon="-4.59121">
        <ele>62.201</ele>
        <time>2011-04-12T12:28:16Z</time>
      </trkpt>
      <trkpt lat="48.3863" lon="-4.59188">
        <ele>65.598</ele>
        <time>2011-04-12T12:28:29Z</time>
      </trkpt>
      <trkpt lat="48.38636" lon="-4.59247">
        <ele>68.642</ele>
        <time>2011-04-12T12:28:41Z</time>
      </trkpt>
      <trkpt lat="48.38686" lon="-4.59308">
        <ele>68.68</ele>
        <time>2011-04-12T12:28:58Z</time>
      </trkpt>
      <trkpt lat="48.38693" lon="-4.59316">
        <ele>67.77</ele>
        <time>2011-04-12T12:29:00Z</time>
      </trkpt>
      <trkpt lat="48.38719" lon="-4.59341">
        <ele>66.4</ele>
        <time>2011-04-12T12:29:06Z</time>
      </trkpt>
      <trkpt lat="48.38834" lon="-4.59443">
        <ele>65.85</ele>
        <time>2011-04-12T12:29:30Z</time>
      </trkpt>
      <trkpt lat="48.38908" lon="-4.59503">
        <ele>63.417</ele>
        <time>2011-04-12T12:29:44Z</time>
      </trkpt>
      <trkpt lat="48.38943" lon="-4.5952">
        <ele>59.932</ele>
        <time>2011-04-12T12:29:49Z</time>
      </trkpt>
      <trkpt lat="48.38951" lon="-4.59522">
        <ele>59.781</ele>
        <time>2011-04-12T12:29:50Z</time>
      </trkpt>
      <trkpt lat="48.38988" lon="-4.59531">
        <ele>55.836</ele>
        <time>2011-04-12T12:29:54Z</time>
      </trkpt>
      <trkpt lat="48.39041" lon="-4.59543">
        <ele>53.047</ele>
        <time>2011-04-12T12:30:00Z</time>
      </trkpt>
      <trkpt lat="48.39077" lon="-4.5955">
        <ele>52.194</ele>
        <time>2011-04-12T12:30:04Z</time>
      </trkpt>
      <trkpt lat="48.39101" lon="-4.59562">
        <ele>53.429</ele>
        <time>2011-04-12T12:30:07Z</time>
      </trkpt>
      <trkpt lat="48.39172" lon="-4.59616">
        <ele>54.843</ele>
        <time>2011-04-12T12:30:19Z</time>
      </trkpt>
      <trkpt lat="48.39217" lon="-4.5965">
        <ele>58.328</ele>
        <time>2011-04-12T12:30:29Z</time>
      </trkpt>
      <trkpt lat="48.3925" lon="-4.59666">
        <ele>60.876</ele>
        <time>2011-04-12T12:30:36Z</time>
      </trkpt>
      <trkpt lat="48.39329" lon="-4.59713">
        <ele>63.912</ele>
        <time>2011-04-12T12:30:53Z</time>
      </trkpt>
      <trkpt lat="48.39405" lon="-4.59762">
        <ele>63.63</ele>
        <time>2011-04-12T12:31:09Z</time>
      </trkpt>
      <trkpt lat="48.39464" lon="-4.59791">
        <ele>60.606</ele>
        <time>2011-04-12T12:31:19Z</time>
      </trkpt>
      <trkpt lat="48.39533" lon="-4.59813">
        <ele>57.528</ele>
        <time>2011-04-12T12:31:29Z</time>
      </trkpt>
      <trkpt lat="48.3962" lon="-4.59833">
        <ele>54.766</ele>
        <time>2011-04-12T12:31:41Z</time>
      </trkpt>
      <trkpt lat="48.39683" lon="-4.59862">
        <ele>51.187</ele>
        <time>2011-04-12T12:31:49Z</time>
      </trkpt>
      <trkpt lat="48.39691" lon="-4.59867">
        <ele>50.959</ele>
        <time>2011-04-12T12:31:50Z</time>
      </trkpt>
      <trkpt lat="48.39764" lon="-4.59914">
        <ele>47.643</ele>
        <time>2011-04-12T12:31:59Z</time>
      </trkpt>
      <trkpt lat="48.39799" lon="-4.59974">
        <ele>45.5</ele>
        <time>2011-04-12T12:32:05Z</time>
      </trkpt>
      <trkpt lat="48.39806" lon="-4.59997">
        <ele>44.457</ele>
        <time>2011-04-12T12:32:07Z</time>
      </trkpt>
      <trkpt lat="48.39865" lon="-4.60058">
        <ele>45.88</ele>
        <time>2011-04-12T12:32:16Z</time>
      </trkpt>
      <trkpt lat="48.3991" lon="-4.60085">
        <ele>49.296</ele>
        <time>2011-04-12T12:32:24Z</time>
      </trkpt>
      <trkpt lat="48.39968" lon="-4.60104">
        <ele>52.457</ele>
        <time>2011-04-12T12:32:35Z</time>
      </trkpt>
      <trkpt lat="48.40071" lon="-4.60107">
        <ele>54.301</ele>
        <time>2011-04-12T12:32:53Z</time>
      </trkpt>
      <trkpt lat="48.40124" lon="-4.60108">
        <ele>53.455</ele>
        <time>2011-04-12T12:33:02Z</time>
      </trkpt>
      <trkpt lat="48.40154" lon="-4.60104">
        <ele>52.361</ele>
        <time>2011-04-12T12:33:07Z</time>
      </trkpt>
      <trkpt lat="48.40217" lon="-4.60058">
        <ele>53.203</ele>
        <time>2011-04-12T12:33:19Z</time>
      </trkpt>
      <trkpt lat="48.40287" lon="-4.59942">
        <ele>54.03</ele>
        <time>2011-04-12T12:33:37Z</time>
      </trkpt>
      <trkpt lat="48.40372" lon="-4.59778">
        <ele>51.002</ele>
        <time>2011-04-12T12:34:01Z</time>
      </trkpt>
      <trkpt lat="48.4038" lon="-4.5976">
        <ele>50.048</ele>
        <time>2011-04-12T12:34:03Z</time>
      </trkpt>
      <trkpt lat="48.40405" lon="-4.59702">
        <ele>46.89</ele>
        <time>2011-04-12T12:34:09Z</time>
      </trkpt>
      <trkpt lat="48.40422" lon="-4.59659">
        <ele>44.884</ele>
        <time>2011-04-12T12:34:13Z</time>
      </trkpt>
      <trkpt lat="48.40449" lon="-4.59595">
        <ele>42.298</ele>
        <time>2011-04-12T12:34:19Z</time>
      </trkpt>
      <trkpt lat="48.40463" lon="-4.59529">
        <ele>42.15</ele>
        <time>2011-04-12T12:34:25Z</time>
      </trkpt>
      <trkpt lat="48.40467" lon="-4.59436">
        <ele>38.901</ele>
        <time>2011-04-12T12:34:33Z</time>
      </trkpt>
      <trkpt lat="48.40468" lon="-4.59322">
        <ele>39.558</ele>
        <time>2011-04-12T12:34:44Z</time>
      </trkpt>
      <trkpt lat="48.40503" lon="-4.59207">
        <ele>37.068</ele>
        <time>2011-04-12T12:34:57Z</time>
      </trkpt>
      <trkpt lat="48.40584" lon="-4.59134">
        <ele>36.479</ele>
        <time>2011-04-12T12:35:11Z</time>
      </trkpt>
      <trkpt lat="48.4063" lon="-4.59151">
        <ele>39.33</ele>
        <time>2011-04-12T12:35:19Z</time>
      </trkpt>
      <trkpt lat="48.4065" lon="-4.59173">
        <ele>39.796</ele>
        <time>2011-04-12T12:35:23Z</time>
      </trkpt>
      <trkpt lat="48.4066" lon="-4.59183">
        <ele>39.773</ele>
        <time>2011-04-12T12:35:25Z</time>
      </trkpt>
      <trkpt lat="48.40671" lon="-4.5919">
        <ele>40.818</ele>
        <time>2011-04-12T12:35:27Z</time>
      </trkpt>
      <trkpt lat="48.40693" lon="-4.59202">
        <ele>42.407</ele>
        <time>2011-04-12T12:35:31Z</time>
      </trkpt>
      <trkpt lat="48.40765" lon="-4.59254">
        <ele>38.658</ele>
        <time>2011-04-12T12:35:44Z</time>
      </trkpt>
      <trkpt lat="48.40769" lon="-4.59263">
        <ele>38.496</ele>
        <time>2011-04-12T12:35:45Z</time>
      </trkpt>
      <trkpt lat="48.40798" lon="-4.5932">
        <ele>36.034</ele>
        <time>2011-04-12T12:35:51Z</time>
      </trkpt>
      <trkpt lat="48.40812" lon="-4.59335">
        <ele>34.68</ele>
        <time>2011-04-12T12:35:53Z</time>
      </trkpt>
      <trkpt lat="48.40871" lon="-4.59382">
        <ele>32.205</ele>
        <time>2011-04-12T12:36:01Z</time>
      </trkpt>
      <trkpt lat="48.409" lon="-4.59395">
        <ele>33.456</ele>
        <time>2011-04-12T12:36:05Z</time>
      </trkpt>
      <trkpt lat="48.41018" lon="-4.59458">
        <ele>33.323</ele>
        <time>2011-04-12T12:36:23Z</time>
      </trkpt>
      <trkpt lat="48.41089" lon="-4.59537">
        <ele>35.539</ele>
        <time>2011-04-12T12:36:38Z</time>
      </trkpt>
      <trkpt lat="48.41143" lon="-4.59581">
        <ele>37.853</ele>
        <time>2011-04-12T12:36:50Z</time>
      </trkpt>
      <trkpt lat="48.41179" lon="-4.59605">
        <ele>38.181</ele>
        <time>2011-04-12T12:36:57Z</time>
      </trkpt>
      <trkpt lat="48.41264" lon="-4.59664">
        <ele>36.234</ele>
        <time>2011-04-12T12:37:13Z</time>
      </trkpt>
      <trkpt lat="48.41394" lon="-4.59768">
        <ele>36.211</ele>
        <time>2011-04-12T12:37:38Z</time>
      </trkpt>
      <trkpt lat="48.41496" lon="-4.59849">
        <ele>36.485</ele>
        <time>2011-04-12T12:37:58Z</time>
      </trkpt>
      <trkpt lat="48.41512" lon="-4.59862">
        <ele>37.048</ele>
        <time>2011-04-12T12:38:02Z</time>
      </trkpt>
      <trkpt lat="48.4153" lon="-4.59844">
        <ele>36.264</ele>
        <time>2011-04-12T12:38:08Z</time>
      </trkpt>
      <trkpt lat="48.41546" lon="-4.59781">
        <ele>33.932</ele>
        <time>2011-04-12T12:38:16Z</time>
      </trkpt>
      <trkpt lat="48.41567" lon="-4.5964">
        <ele>31.977</ele>
        <time>2011-04-12T12:38:34Z</time>
      </trkpt>
      <trkpt lat="48.41556" lon="-4.59469">
        <ele>32.082</ele>
        <time>2011-04-12T12:38:55Z</time>
      </trkpt>
      <trkpt lat="48.41473" lon="-4.59323">
        <ele>31.298</ele>
        <time>2011-04-12T12:39:09Z</time>
      </trkpt>
      <trkpt lat="48.41473" lon="-4.59323">
        <ele>32.268</ele>
        <time>2011-04-12T12:39:15Z</time>
      </trkpt>
      <trkpt lat="48.41413" lon="-4.59236">
        <ele>32.022</ele>
        <time>2011-04-12T12:39:34Z</time>
      </trkpt>
      <trkpt lat="48.41399" lon="-4.59139">
        <ele>31.41</ele>
        <time>2011-04-12T12:39:46Z</time>
      </trkpt>
      <trkpt lat="48.41413" lon="-4.58979">
        <ele>33.523</ele>
        <time>2011-04-12T12:40:06Z</time>
      </trkpt>
      <trkpt lat="48.41418" lon="-4.58918">
        <ele>35.551</ele>
        <time>2011-04-12T12:40:14Z</time>
      </trkpt>
      <trkpt lat="48.4143" lon="-4.58747">
        <ele>38.575</ele>
        <time>2011-04-12T12:40:38Z</time>
      </trkpt>
      <trkpt lat="48.41442" lon="-4.58571">
        <ele>37.737</ele>
        <time>2011-04-12T12:41:02Z</time>
      </trkpt>
      <trkpt lat="48.41456" lon="-4.58362">
        <ele>39.496</ele>
        <time>2011-04-12T12:41:30Z</time>
      </trkpt>
      <trkpt lat="48.41457" lon="-4.58244">
        <ele>41.778</ele>
        <time>2011-04-12T12:41:47Z</time>
      </trkpt>
      <trkpt lat="48.41451" lon="-4.58145">
        <ele>45.167</ele>
        <time>2011-04-12T12:42:03Z</time>
      </trkpt>
      <trkpt lat="48.41447" lon="-4.58074">
        <ele>48.479</ele>
        <time>2011-04-12T12:42:16Z</time>
      </trkpt>
      <trkpt lat="48.41447" lon="-4.58074">
        <ele>49.337</ele>
        <time>2011-04-12T12:42:18Z</time>
      </trkpt>
      <trkpt lat="48.41442" lon="-4.58022">
        <ele>52.872</ele>
        <time>2011-04-12T12:42:27Z</time>
      </trkpt>
      <trkpt lat="48.41439" lon="-4.57993">
        <ele>54.912</ele>
        <time>2011-04-12T12:42:33Z</time>
      </trkpt>
      <trkpt lat="48.41431" lon="-4.57948">
        <ele>57.957</ele>
        <time>2011-04-12T12:42:43Z</time>
      </trkpt>
      <trkpt lat="48.41415" lon="-4.57886">
        <ele>61.26</ele>
        <time>2011-04-12T12:42:56Z</time>
      </trkpt>
      <trkpt lat="48.41395" lon="-4.57824">
        <ele>61.974</ele>
        <time>2011-04-12T12:43:07Z</time>
      </trkpt>
      <trkpt lat="48.41391" lon="-4.57806">
        <ele>62.322</ele>
        <time>2011-04-12T12:43:10Z</time>
      </trkpt>
      <trkpt lat="48.41357" lon="-4.57677">
        <ele>64.059</ele>
        <time>2011-04-12T12:43:32Z</time>
      </trkpt>
      <trkpt lat="48.41327" lon="-4.57534">
        <ele>62.97</ele>
        <time>2011-04-12T12:43:53Z</time>
      </trkpt>
      <trkpt lat="48.41324" lon="-4.57525">
        <ele>62.222</ele>
        <time>2011-04-12T12:43:54Z</time>
      </trkpt>
      <trkpt lat="48.41318" lon="-4.57507">
        <ele>61.108</ele>
        <time>2011-04-12T12:43:56Z</time>
      </trkpt>
      <trkpt lat="48.41292" lon="-4.57447">
        <ele>59.152</ele>
        <time>2011-04-12T12:44:03Z</time>
      </trkpt>
      <trkpt lat="48.4127" lon="-4.574">
        <ele>56.127</ele>
        <time>2011-04-12T12:44:08Z</time>
      </trkpt>
      <trkpt lat="48.41229" lon="-4.57257">
        <ele>55.421</ele>
        <time>2011-04-12T12:44:21Z</time>
      </trkpt>
      <trkpt lat="48.41234" lon="-4.57173">
        <ele>57.823</ele>
        <time>2011-04-12T12:44:30Z</time>
      </trkpt>
      <trkpt lat="48.41236" lon="-4.57152">
        <ele>59.167</ele>
        <time>2011-04-12T12:44:33Z</time>
      </trkpt>
      <trkpt lat="48.41238" lon="-4.57121">
        <ele>62.269</ele>
        <time>2011-04-12T12:44:39Z</time>
      </trkpt>
      <trkpt lat="48.4124" lon="-4.57081">
        <ele>65.663</ele>
        <time>2011-04-12T12:44:48Z</time>
      </trkpt>
      <trkpt lat="48.41244" lon="-4.57045">
        <ele>68.219</ele>
        <time>2011-04-12T12:44:55Z</time>
      </trkpt>
      <trkpt lat="48.41254" lon="-4.56992">
        <ele>71.373</ele>
        <time>2011-04-12T12:45:06Z</time>
      </trkpt>
      <trkpt lat="48.41267" lon="-4.56939">
        <ele>74.515</ele>
        <time>2011-04-12T12:45:17Z</time>
      </trkpt>
      <trkpt lat="48.4128" lon="-4.56889">
        <ele>77.727</ele>
        <time>2011-04-12T12:45:28Z</time>
      </trkpt>
      <trkpt lat="48.41294" lon="-4.56824">
        <ele>80.91</ele>
        <time>2011-04-12T12:45:41Z</time>
      </trkpt>
      <trkpt lat="48.4131" lon="-4.56731">
        <ele>83.376</ele>
        <time>2011-04-12T12:45:59Z</time>
      </trkpt>
      <trkpt lat="48.41314" lon="-4.56654">
        <ele>83.955</ele>
        <time>2011-04-12T12:46:15Z</time>
      </trkpt>
      <trkpt lat="48.41313" lon="-4.56603">
        <ele>82.508</ele>
        <time>2011-04-12T12:46:23Z</time>
      </trkpt>
      <trkpt lat="48.41311" lon="-4.5657">
        <ele>81.535</ele>
        <time>2011-04-12T12:46:28Z</time>
      </trkpt>
      <trkpt lat="48.41276" lon="-4.56442">
        <ele>80.58</ele>
        <time>2011-04-12T12:46:47Z</time>
      </trkpt>
      <trkpt lat="48.41239" lon="-4.56326">
        <ele>78.08</ele>
        <time>2011-04-12T12:47:02Z</time>
      </trkpt>
      <trkpt lat="48.41192" lon="-4.56167">
        <ele>75.761</ele>
        <time>2011-04-12T12:47:22Z</time>
      </trkpt>
      <trkpt lat="48.41178" lon="-4.56093">
        <ele>76.062</ele>
        <time>2011-04-12T12:47:32Z</time>
      </trkpt>
      <trkpt lat="48.41156" lon="-4.56067">
        <ele>76.119</ele>
        <time>2011-04-12T12:47:36Z</time>
      </trkpt>
      <trkpt lat="48.41109" lon="-4.5607">
        <ele>72.745</ele>
        <time>2011-04-12T12:47:43Z</time>
      </trkpt>
      <trkpt lat="48.41101" lon="-4.56073">
        <ele>72.597</ele>
        <time>2011-04-12T12:47:44Z</time>
      </trkpt>
      <trkpt lat="48.41054" lon="-4.56104">
        <ele>69.548</ele>
        <time>2011-04-12T12:47:50Z</time>
      </trkpt>
      <trkpt lat="48.40997" lon="-4.56153">
        <ele>66.069</ele>
        <time>2011-04-12T12:47:57Z</time>
      </trkpt>
      <trkpt lat="48.4096" lon="-4.56183">
        <ele>62.439</ele>
        <time>2011-04-12T12:48:01Z</time>
      </trkpt>
      <trkpt lat="48.40951" lon="-4.56191">
        <ele>62.779</ele>
        <time>2011-04-12T12:48:02Z</time>
      </trkpt>
      <trkpt lat="48.40836" lon="-4.56297">
        <ele>60.998</ele>
        <time>2011-04-12T12:48:17Z</time>
      </trkpt>
      <trkpt lat="48.40697" lon="-4.56426">
        <ele>61.875</ele>
        <time>2011-04-12T12:48:39Z</time>
      </trkpt>
      <trkpt lat="48.40554" lon="-4.56574">
        <ele>63.563</ele>
        <time>2011-04-12T12:49:04Z</time>
      </trkpt>
      <trkpt lat="48.40535" lon="-4.56604">
        <ele>63.774</ele>
        <time>2011-04-12T12:49:08Z</time>
      </trkpt>
      <trkpt lat="48.40462" lon="-4.56664">
        <ele>60.413</ele>
        <time>2011-04-12T12:49:19Z</time>
      </trkpt>
      <trkpt lat="48.4043" lon="-4.56685">
        <ele>57.108</ele>
        <time>2011-04-12T12:49:23Z</time>
      </trkpt>
      <trkpt lat="48.40422" lon="-4.5669">
        <ele>56.876</ele>
        <time>2011-04-12T12:49:24Z</time>
      </trkpt>
      <trkpt lat="48.40387" lon="-4.56708">
        <ele>55.171</ele>
        <time>2011-04-12T12:49:28Z</time>
      </trkpt>
      <trkpt lat="48.40329" lon="-4.56745">
        <ele>52.72</ele>
        <time>2011-04-12T12:49:35Z</time>
      </trkpt>
      <trkpt lat="48.40235" lon="-4.56842">
        <ele>49.454</ele>
        <time>2011-04-12T12:49:48Z</time>
      </trkpt>
      <trkpt lat="48.40191" lon="-4.5689">
        <ele>46.966</ele>
        <time>2011-04-12T12:49:54Z</time>
      </trkpt>
      <trkpt lat="48.40159" lon="-4.56924">
        <ele>44.756</ele>
        <time>2011-04-12T12:49:58Z</time>
      </trkpt>
      <trkpt lat="48.40134" lon="-4.56946">
        <ele>43.496</ele>
        <time>2011-04-12T12:50:01Z</time>
      </trkpt>
      <trkpt lat="48.40099" lon="-4.56974">
        <ele>42.085</ele>
        <time>2011-04-12T12:50:05Z</time>
      </trkpt>
      <trkpt lat="48.39959" lon="-4.57075">
        <ele>39.454</ele>
        <time>2011-04-12T12:50:23Z</time>
      </trkpt>
      <trkpt lat="48.39821" lon="-4.5715">
        <ele>38.469</ele>
        <time>2011-04-12T12:50:43Z</time>
      </trkpt>
      <trkpt lat="48.39687" lon="-4.57204">
        <ele>36.611</ele>
        <time>2011-04-12T12:51:01Z</time>
      </trkpt>
      <trkpt lat="48.3954" lon="-4.57224">
        <ele>37.167</ele>
        <time>2011-04-12T12:51:20Z</time>
      </trkpt>
      <trkpt lat="48.39426" lon="-4.57286">
        <ele>38.291</ele>
        <time>2011-04-12T12:51:35Z</time>
      </trkpt>
      <trkpt lat="48.39329" lon="-4.57331">
        <ele>39.578</ele>
        <time>2011-04-12T12:51:48Z</time>
      </trkpt>
      <trkpt lat="48.39254" lon="-4.57347">
        <ele>40.46</ele>
        <time>2011-04-12T12:52:00Z</time>
      </trkpt>
      <trkpt lat="48.39106" lon="-4.57378">
        <ele>42.29</ele>
        <time>2011-04-12T12:52:24Z</time>
      </trkpt>
      <trkpt lat="48.38935" lon="-4.57423">
        <ele>43.453</ele>
        <time>2011-04-12T12:52:52Z</time>
      </trkpt>
      <trkpt lat="48.38774" lon="-4.57486">
        <ele>45.632</ele>
        <time>2011-04-12T12:53:19Z</time>
      </trkpt>
      <trkpt lat="48.38619" lon="-4.57547">
        <ele>48.269</ele>
        <time>2011-04-12T12:53:47Z</time>
      </trkpt>
      <trkpt lat="48.38478" lon="-4.57602">
        <ele>50.7</ele>
        <time>2011-04-12T12:54:17Z</time>
      </trkpt>
      <trkpt lat="48.38372" lon="-4.57612">
        <ele>52.323</ele>
        <time>2011-04-12T12:54:34Z</time>
      </trkpt>
      <trkpt lat="48.38361" lon="-4.57611">
        <ele>52.56</ele>
        <time>2011-04-12T12:54:36Z</time>
      </trkpt>
      <trkpt lat="48.38346" lon="-4.57608">
        <ele>52.898</ele>
        <time>2011-04-12T12:54:39Z</time>
      </trkpt>
      <trkpt lat="48.38238" lon="-4.5759">
        <ele>56.214</ele>
        <time>2011-04-12T12:55:01Z</time>
      </trkpt>
      <trkpt lat="48.38191" lon="-4.5759">
        <ele>59.575</ele>
        <time>2011-04-12T12:55:13Z</time>
      </trkpt>
      <trkpt lat="48.38142" lon="-4.57597">
        <ele>62.97</ele>
        <time>2011-04-12T12:55:26Z</time>
      </trkpt>
      <trkpt lat="48.381" lon="-4.57611">
        <ele>66.014</ele>
        <time>2011-04-12T12:55:37Z</time>
      </trkpt>
      <trkpt lat="48.381" lon="-4.57611">
        <ele>67.162</ele>
        <time>2011-04-12T12:55:40Z</time>
      </trkpt>
      <trkpt lat="48.37996" lon="-4.57656">
        <ele>70.211</ele>
        <time>2011-04-12T12:56:02Z</time>
      </trkpt>
      <trkpt lat="48.37885" lon="-4.57736">
        <ele>71.591</ele>
        <time>2011-04-12T12:56:27Z</time>
      </trkpt>
      <trkpt lat="48.37801" lon="-4.57837">
        <ele>75.093</ele>
        <time>2011-04-12T12:56:47Z</time>
      </trkpt>
      <trkpt lat="48.37753" lon="-4.57892">
        <ele>77.869</ele>
        <time>2011-04-12T12:56:58Z</time>
      </trkpt>
      <trkpt lat="48.37736" lon="-4.57912">
        <ele>80.349</ele>
        <time>2011-04-12T12:57:02Z</time>
      </trkpt>
      <trkpt lat="48.3772" lon="-4.57931">
        <ele>81.759</ele>
        <time>2011-04-12T12:57:06Z</time>
      </trkpt>
      <trkpt lat="48.37718" lon="-4.57933">
        <ele>83.643</ele>
        <time>2011-04-12T12:57:10Z</time>
      </trkpt>
      <trkpt lat="48.37641" lon="-4.57984">
        <ele>86.372</ele>
        <time>2011-04-12T12:57:27Z</time>
      </trkpt>
      <trkpt lat="48.37579" lon="-4.58008">
        <ele>87.111</ele>
        <time>2011-04-12T12:57:44Z</time>
      </trkpt>
      <trkpt lat="48.37564" lon="-4.58017">
        <ele>87.405</ele>
        <time>2011-04-12T12:57:55Z</time>
      </trkpt>
      <trkpt lat="48.37535" lon="-4.57978">
        <ele>87.312</ele>
        <time>2011-04-12T12:58:07Z</time>
      </trkpt>
      <trkpt lat="48.3751" lon="-4.5794">
        <ele>86.478</ele>
        <time>2011-04-12T12:58:19Z</time>
      </trkpt>
      <trkpt lat="48.37478" lon="-4.57899">
        <ele>86.062</ele>
        <time>2011-04-12T12:58:28Z</time>
      </trkpt>
      <trkpt lat="48.37466" lon="-4.5785">
        <ele>85.667</ele>
        <time>2011-04-12T12:58:35Z</time>
      </trkpt>
      <trkpt lat="48.3751" lon="-4.57698">
        <ele>85.372</ele>
        <time>2011-04-12T12:58:58Z</time>
      </trkpt>
      <trkpt lat="48.37559" lon="-4.5754">
        <ele>85.509</ele>
        <time>2011-04-12T12:59:21Z</time>
      </trkpt>
      <trkpt lat="48.37562" lon="-4.57502">
        <ele>85.15</ele>
        <time>2011-04-12T12:59:26Z</time>
      </trkpt>
      <trkpt lat="48.37554" lon="-4.57458">
        <ele>86.238</ele>
        <time>2011-04-12T12:59:34Z</time>
      </trkpt>
      <trkpt lat="48.37533" lon="-4.57446">
        <ele>85.742</ele>
        <time>2011-04-12T12:59:39Z</time>
      </trkpt>
      <trkpt lat="48.37482" lon="-4.57418">
        <ele>82.99</ele>
        <time>2011-04-12T12:59:49Z</time>
      </trkpt>
      <trkpt lat="48.37446" lon="-4.57398">
        <ele>79.288</ele>
        <time>2011-04-12T12:59:55Z</time>
      </trkpt>
      <trkpt lat="48.37433" lon="-4.57391">
        <ele>78.468</ele>
        <time>2011-04-12T12:59:57Z</time>
      </trkpt>
      <trkpt lat="48.37416" lon="-4.57381">
        <ele>76.61</ele>
        <time>2011-04-12T13:00:00Z</time>
      </trkpt>
      <trkpt lat="48.37397" lon="-4.57371">
        <ele>74.767</ele>
        <time>2011-04-12T13:00:04Z</time>
      </trkpt>
      <trkpt lat="48.37388" lon="-4.57366">
        <ele>73.53</ele>
        <time>2011-04-12T13:00:06Z</time>
      </trkpt>
      <trkpt lat="48.37383" lon="-4.57297">
        <ele>72.264</ele>
        <time>2011-04-12T13:00:10Z</time>
      </trkpt>
      <trkpt lat="48.37392" lon="-4.57166">
        <ele>74.855</ele>
        <time>2011-04-12T13:00:26Z</time>
      </trkpt>
      <trkpt lat="48.37392" lon="-4.57159">
        <ele>75.008</ele>
        <time>2011-04-12T13:00:27Z</time>
      </trkpt>
      <trkpt lat="48.374" lon="-4.57048">
        <ele>78.126</ele>
        <time>2011-04-12T13:00:41Z</time>
      </trkpt>
      <trkpt lat="48.37402" lon="-4.56921">
        <ele>78.551</ele>
        <time>2011-04-12T13:00:54Z</time>
      </trkpt>
      <trkpt lat="48.37401" lon="-4.56843">
        <ele>79.969</ele>
        <time>2011-04-12T13:01:06Z</time>
      </trkpt>
      <trkpt lat="48.37403" lon="-4.56817">
        <ele>79.142</ele>
        <time>2011-04-12T13:01:11Z</time>
      </trkpt>
      <trkpt lat="48.37406" lon="-4.56782">
        <ele>78.831</ele>
        <time>2011-04-12T13:01:16Z</time>
      </trkpt>
      <trkpt lat="48.37408" lon="-4.5676">
        <ele>79.699</ele>
        <time>2011-04-12T13:01:19Z</time>
      </trkpt>
      <trkpt lat="48.3741" lon="-4.56739">
        <ele>79.97</ele>
        <time>2011-04-12T13:01:22Z</time>
      </trkpt>
      <trkpt lat="48.37435" lon="-4.56609">
        <ele>80.744</ele>
        <time>2011-04-12T13:01:40Z</time>
      </trkpt>
      <trkpt lat="48.37458" lon="-4.56475">
        <ele>82.173</ele>
        <time>2011-04-12T13:01:58Z</time>
      </trkpt>
      <trkpt lat="48.37487" lon="-4.56457">
        <ele>82.281</ele>
        <time>2011-04-12T13:02:05Z</time>
      </trkpt>
      <trkpt lat="48.37517" lon="-4.56463">
        <ele>84.288</ele>
        <time>2011-04-12T13:02:17Z</time>
      </trkpt>
      <trkpt lat="48.37518" lon="-4.56464">
        <ele>84.318</ele>
        <time>2011-04-12T13:03:12Z</time>
      </trkpt>
      <trkpt lat="48.3752" lon="-4.56465">
        <ele>84.143</ele>
        <time>2011-04-12T13:03:39Z</time>
      </trkpt>
      <trkpt lat="48.37521" lon="-4.56465">
        <ele>84.304</ele>
        <time>2011-04-12T13:04:36Z</time>
      </trkpt>
      <trkpt lat="48.37538" lon="-4.56461">
        <ele>83.775</ele>
        <time>2011-04-12T13:05:36Z</time>
      </trkpt>
      <trkpt lat="48.37541" lon="-4.56457">
        <ele>83.27</ele>
        <time>2011-04-12T13:05:37Z</time>
      </trkpt>
      <trkpt lat="48.37552" lon="-4.56444">
        <ele>83.306</ele>
        <time>2011-04-12T13:05:40Z</time>
      </trkpt>
      <trkpt lat="48.37595" lon="-4.56333">
        <ele>81.371</ele>
        <time>2011-04-12T13:05:54Z</time>
      </trkpt>
      <trkpt lat="48.37645" lon="-4.56189">
        <ele>79.348</ele>
        <time>2011-04-12T13:06:09Z</time>
      </trkpt>
      <trkpt lat="48.37641" lon="-4.56174">
        <ele>78.393</ele>
        <time>2011-04-12T13:06:11Z</time>
      </trkpt>
      <trkpt lat="48.37655" lon="-4.56115">
        <ele>77.052</ele>
        <time>2011-04-12T13:06:15Z</time>
      </trkpt>
      <trkpt lat="48.37679" lon="-4.56023">
        <ele>74.182</ele>
        <time>2011-04-12T13:06:24Z</time>
      </trkpt>
      <trkpt lat="48.37679" lon="-4.56023">
        <ele>74.738</ele>
        <time>2011-04-12T13:06:29Z</time>
      </trkpt>
      <trkpt lat="48.37697" lon="-4.5587">
        <ele>78.351</ele>
        <time>2011-04-12T13:06:39Z</time>
      </trkpt>
      <trkpt lat="48.37697" lon="-4.55861">
        <ele>78.456</ele>
        <time>2011-04-12T13:06:40Z</time>
      </trkpt>
      <trkpt lat="48.37693" lon="-4.55831">
        <ele>78.763</ele>
        <time>2011-04-12T13:06:44Z</time>
      </trkpt>
      <trkpt lat="48.37684" lon="-4.55781">
        <ele>79.903</ele>
        <time>2011-04-12T13:06:50Z</time>
      </trkpt>
      <trkpt lat="48.37679" lon="-4.55726">
        <ele>79.92</ele>
        <time>2011-04-12T13:06:56Z</time>
      </trkpt>
      <trkpt lat="48.37689" lon="-4.55707">
        <ele>79.519</ele>
        <time>2011-04-12T13:06:58Z</time>
      </trkpt>
      <trkpt lat="48.3772" lon="-4.55681">
        <ele>78.683</ele>
        <time>2011-04-12T13:07:04Z</time>
      </trkpt>
      <trkpt lat="48.37731" lon="-4.55673">
        <ele>78.44</ele>
        <time>2011-04-12T13:07:06Z</time>
      </trkpt>
      <trkpt lat="48.3774" lon="-4.5564">
        <ele>78.743</ele>
        <time>2011-04-12T13:07:11Z</time>
      </trkpt>
      <trkpt lat="48.37781" lon="-4.55459">
        <ele>78.55</ele>
        <time>2011-04-12T13:07:31Z</time>
      </trkpt>
      <trkpt lat="48.37784" lon="-4.55451">
        <ele>78.544</ele>
        <time>2011-04-12T13:07:32Z</time>
      </trkpt>
      <trkpt lat="48.37827" lon="-4.55333">
        <ele>76.795</ele>
        <time>2011-04-12T13:07:48Z</time>
      </trkpt>
      <trkpt lat="48.37841" lon="-4.55281">
        <ele>77.876</ele>
        <time>2011-04-12T13:08:01Z</time>
      </trkpt>
      <trkpt lat="48.37868" lon="-4.55209">
        <ele>76.655</ele>
        <time>2011-04-12T13:08:17Z</time>
      </trkpt>
      <trkpt lat="48.37881" lon="-4.55186">
        <ele>75.514</ele>
        <time>2011-04-12T13:08:22Z</time>
      </trkpt>
      <trkpt lat="48.37899" lon="-4.55153">
        <ele>74.302</ele>
        <time>2011-04-12T13:08:28Z</time>
      </trkpt>
      <trkpt lat="48.37914" lon="-4.55125">
        <ele>73.963</ele>
        <time>2011-04-12T13:08:33Z</time>
      </trkpt>
      <trkpt lat="48.37978" lon="-4.55008">
        <ele>72.172</ele>
        <time>2011-04-12T13:08:53Z</time>
      </trkpt>
      <trkpt lat="48.38021" lon="-4.54905">
        <ele>71.932</ele>
        <time>2011-04-12T13:09:10Z</time>
      </trkpt>
      <trkpt lat="48.38032" lon="-4.54884">
        <ele>72.16</ele>
        <time>2011-04-12T13:09:14Z</time>
      </trkpt>
      <trkpt lat="48.38045" lon="-4.54859">
        <ele>72.451</ele>
        <time>2011-04-12T13:09:20Z</time>
      </trkpt>
      <trkpt lat="48.38063" lon="-4.54823">
        <ele>74.092</ele>
        <time>2011-04-12T13:09:28Z</time>
      </trkpt>
      <trkpt lat="48.38107" lon="-4.5474">
        <ele>75.352</ele>
        <time>2011-04-12T13:09:42Z</time>
      </trkpt>
      <trkpt lat="48.38161" lon="-4.54651">
        <ele>76.082</ele>
        <time>2011-04-12T13:10:00Z</time>
      </trkpt>
      <trkpt lat="48.38168" lon="-4.54642">
        <ele>76.474</ele>
        <time>2011-04-12T13:10:02Z</time>
      </trkpt>
      <trkpt lat="48.38177" lon="-4.54628">
        <ele>76.619</ele>
        <time>2011-04-12T13:10:08Z</time>
      </trkpt>
      <trkpt lat="48.38191" lon="-4.54478">
        <ele>78.253</ele>
        <time>2011-04-12T13:10:28Z</time>
      </trkpt>
      <trkpt lat="48.38202" lon="-4.5434">
        <ele>80.829</ele>
        <time>2011-04-12T13:10:50Z</time>
      </trkpt>
      <trkpt lat="48.38207" lon="-4.54309">
        <ele>80.929</ele>
        <time>2011-04-12T13:10:55Z</time>
      </trkpt>
      <trkpt lat="48.38224" lon="-4.54279">
        <ele>81.288</ele>
        <time>2011-04-12T13:11:01Z</time>
      </trkpt>
      <trkpt lat="48.38251" lon="-4.54236">
        <ele>82.198</ele>
        <time>2011-04-12T13:11:10Z</time>
      </trkpt>
      <trkpt lat="48.38272" lon="-4.54162">
        <ele>83.353</ele>
        <time>2011-04-12T13:11:23Z</time>
      </trkpt>
      <trkpt lat="48.3828" lon="-4.54018">
        <ele>86.036</ele>
        <time>2011-04-12T13:11:47Z</time>
      </trkpt>
      <trkpt lat="48.3828" lon="-4.53904">
        <ele>85.887</ele>
        <time>2011-04-12T13:12:05Z</time>
      </trkpt>
      <trkpt lat="48.3828" lon="-4.5389">
        <ele>86.593</ele>
        <time>2011-04-12T13:12:11Z</time>
      </trkpt>
      <trkpt lat="48.38293" lon="-4.53807">
        <ele>87.93</ele>
        <time>2011-04-12T13:12:23Z</time>
      </trkpt>
      <trkpt lat="48.38293" lon="-4.53795">
        <ele>88.111</ele>
        <time>2011-04-12T13:12:34Z</time>
      </trkpt>
      <trkpt lat="48.38293" lon="-4.53795">
        <ele>88.195</ele>
        <time>2011-04-12T13:13:04Z</time>
      </trkpt>
      <trkpt lat="48.38293" lon="-4.53795">
        <ele>87.737</ele>
        <time>2011-04-12T13:14:10Z</time>
      </trkpt>
      <trkpt lat="48.38294" lon="-4.53756">
        <ele>86.5</ele>
        <time>2011-04-12T13:14:19Z</time>
      </trkpt>
      <trkpt lat="48.38309" lon="-4.53665">
        <ele>87.03</ele>
        <time>2011-04-12T13:14:36Z</time>
      </trkpt>
      <trkpt lat="48.3831" lon="-4.5366">
        <ele>88.152</ele>
        <time>2011-04-12T13:14:48Z</time>
      </trkpt>
      <trkpt lat="48.38315" lon="-4.53628">
        <ele>87.81</ele>
        <time>2011-04-12T13:15:05Z</time>
      </trkpt>
      <trkpt lat="48.38316" lon="-4.53616">
        <ele>87.778</ele>
        <time>2011-04-12T13:15:07Z</time>
      </trkpt>
      <trkpt lat="48.38323" lon="-4.53474">
        <ele>87.272</ele>
        <time>2011-04-12T13:15:27Z</time>
      </trkpt>
      <trkpt lat="48.38323" lon="-4.53314">
        <ele>87.558</ele>
        <time>2011-04-12T13:15:48Z</time>
      </trkpt>
      <trkpt lat="48.38323" lon="-4.53159">
        <ele>86.928</ele>
        <time>2011-04-12T13:16:09Z</time>
      </trkpt>
      <trkpt lat="48.38323" lon="-4.53139">
        <ele>87.211</ele>
        <time>2011-04-12T13:16:12Z</time>
      </trkpt>
      <trkpt lat="48.38323" lon="-4.53139">
        <ele>88.496</ele>
        <time>2011-04-12T13:16:14Z</time>
      </trkpt>
      <trkpt lat="48.38339" lon="-4.53108">
        <ele>87.793</ele>
        <time>2011-04-12T13:16:18Z</time>
      </trkpt>
      <trkpt lat="48.38361" lon="-4.5306">
        <ele>88.674</ele>
        <time>2011-04-12T13:16:27Z</time>
      </trkpt>
      <trkpt lat="48.38376" lon="-4.5301">
        <ele>88.795</ele>
        <time>2011-04-12T13:16:35Z</time>
      </trkpt>
      <trkpt lat="48.38385" lon="-4.52977">
        <ele>88.083</ele>
        <time>2011-04-12T13:16:40Z</time>
      </trkpt>
      <trkpt lat="48.38389" lon="-4.52965">
        <ele>88.586</ele>
        <time>2011-04-12T13:16:42Z</time>
      </trkpt>
      <trkpt lat="48.384" lon="-4.52941">
        <ele>87.626</ele>
        <time>2011-04-12T13:16:46Z</time>
      </trkpt>
      <trkpt lat="48.38422" lon="-4.5292">
        <ele>88.023</ele>
        <time>2011-04-12T13:16:51Z</time>
      </trkpt>
      <trkpt lat="48.38445" lon="-4.52908">
        <ele>87.247</ele>
        <time>2011-04-12T13:16:56Z</time>
      </trkpt>
      <trkpt lat="48.38481" lon="-4.52917">
        <ele>88.523</ele>
        <time>2011-04-12T13:17:03Z</time>
      </trkpt>
      <trkpt lat="48.3852" lon="-4.5292">
        <ele>87.452</ele>
        <time>2011-04-12T13:17:11Z</time>
      </trkpt>
      <trkpt lat="48.38531" lon="-4.52906">
        <ele>87.858</ele>
        <time>2011-04-12T13:17:18Z</time>
      </trkpt>
      <trkpt lat="48.38532" lon="-4.52845">
        <ele>88.093</ele>
        <time>2011-04-12T13:17:32Z</time>
      </trkpt>
      <trkpt lat="48.38536" lon="-4.52812">
        <ele>87.336</ele>
        <time>2011-04-12T13:18:25Z</time>
      </trkpt>
      <trkpt lat="48.38538" lon="-4.52784">
        <ele>86.515</ele>
        <time>2011-04-12T13:18:30Z</time>
      </trkpt>
      <trkpt lat="48.38538" lon="-4.52746">
        <ele>87.263</ele>
        <time>2011-04-12T13:18:35Z</time>
      </trkpt>
      <trkpt lat="48.3853" lon="-4.52631">
        <ele>87.261</ele>
        <time>2011-04-12T13:18:51Z</time>
      </trkpt>
      <trkpt lat="48.38527" lon="-4.52498">
        <ele>86.928</ele>
        <time>2011-04-12T13:19:09Z</time>
      </trkpt>
      <trkpt lat="48.38534" lon="-4.52419">
        <ele>85.773</ele>
        <time>2011-04-12T13:19:22Z</time>
      </trkpt>
      <trkpt lat="48.38553" lon="-4.52296">
        <ele>84.684</ele>
        <time>2011-04-12T13:19:39Z</time>
      </trkpt>
      <trkpt lat="48.38571" lon="-4.52148">
        <ele>82.328</ele>
        <time>2011-04-12T13:19:57Z</time>
      </trkpt>
      <trkpt lat="48.38583" lon="-4.51995">
        <ele>80.366</ele>
        <time>2011-04-12T13:20:16Z</time>
      </trkpt>
      <trkpt lat="48.38588" lon="-4.51897">
        <ele>77.991</ele>
        <time>2011-04-12T13:20:27Z</time>
      </trkpt>
      <trkpt lat="48.38586" lon="-4.51795">
        <ele>78.484</ele>
        <time>2011-04-12T13:20:39Z</time>
      </trkpt>
      <trkpt lat="48.38585" lon="-4.51786">
        <ele>78.263</ele>
        <time>2011-04-12T13:20:40Z</time>
      </trkpt>
      <trkpt lat="48.38571" lon="-4.51714">
        <ele>75.279</ele>
        <time>2011-04-12T13:20:48Z</time>
      </trkpt>
      <trkpt lat="48.38564" lon="-4.51696">
        <ele>74.185</ele>
        <time>2011-04-12T13:20:50Z</time>
      </trkpt>
      <trkpt lat="48.3853" lon="-4.51586">
        <ele>71.159</ele>
        <time>2011-04-12T13:21:03Z</time>
      </trkpt>
      <trkpt lat="48.38538" lon="-4.5155">
        <ele>70.757</ele>
        <time>2011-04-12T13:21:09Z</time>
      </trkpt>
      <trkpt lat="48.38548" lon="-4.51554">
        <ele>70.442</ele>
        <time>2011-04-12T13:21:11Z</time>
      </trkpt>
      <trkpt lat="48.386" lon="-4.5155">
        <ele>71.013</ele>
        <time>2011-04-12T13:21:21Z</time>
      </trkpt>
      <trkpt lat="48.3862" lon="-4.51544">
        <ele>70.49</ele>
        <time>2011-04-12T13:21:25Z</time>
      </trkpt>
      <trkpt lat="48.38645" lon="-4.51521">
        <ele>69.469</ele>
        <time>2011-04-12T13:21:33Z</time>
      </trkpt>
      <trkpt lat="48.38676" lon="-4.51463">
        <ele>67.274</ele>
        <time>2011-04-12T13:21:40Z</time>
      </trkpt>
      <trkpt lat="48.38705" lon="-4.51409">
        <ele>67.386</ele>
        <time>2011-04-12T13:21:51Z</time>
      </trkpt>
      <trkpt lat="48.38707" lon="-4.51404">
        <ele>66.871</ele>
        <time>2011-04-12T13:22:04Z</time>
      </trkpt>
      <trkpt lat="48.38737" lon="-4.5135">
        <ele>64.322</ele>
        <time>2011-04-12T13:22:15Z</time>
      </trkpt>
      <trkpt lat="48.38748" lon="-4.51329">
        <ele>63.056</ele>
        <time>2011-04-12T13:22:18Z</time>
      </trkpt>
      <trkpt lat="48.38767" lon="-4.51293">
        <ele>61.662</ele>
        <time>2011-04-12T13:22:23Z</time>
      </trkpt>
      <trkpt lat="48.38774" lon="-4.51281">
        <ele>59.71</ele>
        <time>2011-04-12T13:22:27Z</time>
      </trkpt>
      <trkpt lat="48.38791" lon="-4.51242">
        <ele>58.819</ele>
        <time>2011-04-12T13:22:29Z</time>
      </trkpt>
      <trkpt lat="48.388" lon="-4.51225">
        <ele>57.456</ele>
        <time>2011-04-12T13:22:31Z</time>
      </trkpt>
      <trkpt lat="48.38834" lon="-4.51124">
        <ele>54.418</ele>
        <time>2011-04-12T13:22:42Z</time>
      </trkpt>
      <trkpt lat="48.38851" lon="-4.51074">
        <ele>51.394</ele>
        <time>2011-04-12T13:22:47Z</time>
      </trkpt>
      <trkpt lat="48.38858" lon="-4.51053">
        <ele>49.987</ele>
        <time>2011-04-12T13:22:49Z</time>
      </trkpt>
      <trkpt lat="48.38878" lon="-4.50998">
        <ele>48.373</ele>
        <time>2011-04-12T13:22:54Z</time>
      </trkpt>
      <trkpt lat="48.38892" lon="-4.50956">
        <ele>47.437</ele>
        <time>2011-04-12T13:22:58Z</time>
      </trkpt>
      <trkpt lat="48.38882" lon="-4.50922">
        <ele>47.825</ele>
        <time>2011-04-12T13:23:03Z</time>
      </trkpt>
      <trkpt lat="48.38758" lon="-4.5082">
        <ele>48.265</ele>
        <time>2011-04-12T13:23:26Z</time>
      </trkpt>
      <trkpt lat="48.38672" lon="-4.50747">
        <ele>45.26</ele>
        <time>2011-04-12T13:23:41Z</time>
      </trkpt>
      <trkpt lat="48.38619" lon="-4.50703">
        <ele>42.189</ele>
        <time>2011-04-12T13:23:49Z</time>
      </trkpt>
      <trkpt lat="48.38575" lon="-4.50665">
        <ele>38.565</ele>
        <time>2011-04-12T13:23:55Z</time>
      </trkpt>
      <trkpt lat="48.38562" lon="-4.50652">
        <ele>37.346</ele>
        <time>2011-04-12T13:23:57Z</time>
      </trkpt>
      <trkpt lat="48.38525" lon="-4.50617">
        <ele>33.623</ele>
        <time>2011-04-12T13:24:02Z</time>
      </trkpt>
      <trkpt lat="48.385" lon="-4.50593">
        <ele>30.55</ele>
        <time>2011-04-12T13:24:05Z</time>
      </trkpt>
      <trkpt lat="48.38466" lon="-4.50559">
        <ele>27.357</ele>
        <time>2011-04-12T13:24:09Z</time>
      </trkpt>
      <trkpt lat="48.38441" lon="-4.50536">
        <ele>25.494</ele>
        <time>2011-04-12T13:24:12Z</time>
      </trkpt>
      <trkpt lat="48.38406" lon="-4.50539">
        <ele>25.072</ele>
        <time>2011-04-12T13:24:17Z</time>
      </trkpt>
      <trkpt lat="48.38389" lon="-4.50545">
        <ele>25.79</ele>
        <time>2011-04-12T13:24:20Z</time>
      </trkpt>
      <trkpt lat="48.38373" lon="-4.50598">
        <ele>28.955</ele>
        <time>2011-04-12T13:24:27Z</time>
      </trkpt>
      <trkpt lat="48.38368" lon="-4.50657">
        <ele>32.18</ele>
        <time>2011-04-12T13:24:36Z</time>
      </trkpt>
      <trkpt lat="48.38363" lon="-4.50704">
        <ele>34.507</ele>
        <time>2011-04-12T13:24:43Z</time>
      </trkpt>
      <trkpt lat="48.38357" lon="-4.50758">
        <ele>36.997</ele>
        <time>2011-04-12T13:24:52Z</time>
      </trkpt>
      <trkpt lat="48.38353" lon="-4.50802">
        <ele>40.327</ele>
        <time>2011-04-12T13:25:00Z</time>
      </trkpt>
      <trkpt lat="48.38348" lon="-4.50827">
        <ele>41.829</ele>
        <time>2011-04-12T13:25:05Z</time>
      </trkpt>
      <trkpt lat="48.38333" lon="-4.50878">
        <ele>44.965</ele>
        <time>2011-04-12T13:25:15Z</time>
      </trkpt>
      <trkpt lat="48.38316" lon="-4.50923">
        <ele>47.176</ele>
        <time>2011-04-12T13:25:25Z</time>
      </trkpt>
      <trkpt lat="48.38304" lon="-4.50898">
        <ele>48.734</ele>
        <time>2011-04-12T13:25:32Z</time>
      </trkpt>
      <trkpt lat="48.38297" lon="-4.50874">
        <ele>49.237</ele>
        <time>2011-04-12T13:25:47Z</time>
      </trkpt>
      <trkpt lat="48.3829" lon="-4.50833">
        <ele>47.355</ele>
        <time>2011-04-12T13:25:59Z</time>
      </trkpt>
      <trkpt lat="48.38285" lon="-4.50769">
        <ele>44.195</ele>
        <time>2011-04-12T13:26:07Z</time>
      </trkpt>
      <trkpt lat="48.38284" lon="-4.50751">
        <ele>43.143</ele>
        <time>2011-04-12T13:26:09Z</time>
      </trkpt>
      <trkpt lat="48.38277" lon="-4.50689">
        <ele>38.995</ele>
        <time>2011-04-12T13:26:16Z</time>
      </trkpt>
      <trkpt lat="48.38275" lon="-4.50673">
        <ele>38.281</ele>
        <time>2011-04-12T13:26:18Z</time>
      </trkpt>
      <trkpt lat="48.38271" lon="-4.50638">
        <ele>37.435</ele>
        <time>2011-04-12T13:26:27Z</time>
      </trkpt>
    </trkseg>
  </trk>
  <trk>
    <name><![CDATA[ACTIVE LOG153309]]></name>
    <trkseg>
      <trkpt lat="48.38271" lon="-4.50637">
        <ele>44.018</ele>
        <time>2011-04-12T13:33:09Z</time>
      </trkpt>
      <trkpt lat="48.38271" lon="-4.50637">
        <ele>42.245</ele>
        <time>2011-04-12T13:33:21Z</time>
      </trkpt>
      <trkpt lat="48.38271" lon="-4.50637">
        <ele>43.902</ele>
        <time>2011-04-12T13:33:22Z</time>
      </trkpt>
      <trkpt lat="48.38271" lon="-4.50637">
        <ele>40.435</ele>
        <time>2011-04-12T13:33:23Z</time>
      </trkpt>
      <trkpt lat="48.38271" lon="-4.50637">
        <ele>43.419</ele>
        <time>2011-04-12T13:33:24Z</time>
      </trkpt>
    </trkseg>
  </trk>
</gpx>